M I D A S
Marine Information and Data Acquisition System
Tripno 1707 of the Zeeleeuw from 2009-06-08 08:01:10 to 2009-06-08 14:49:19
Back to CruiseResearch ActivitiesStationsMapUnderway DataData graphs

EquipmentUnitsComment
TimeDGPSUTC
LatitudeDGPSDM.mWGS84
LongitudeDGPSDM.mWGS84
TemperatureSBE03/SBE38deg celciusITS90
ConductivitySBE21S/mITS90
SalinitySBE21 Practical Salinity Units
ChlorophylAChelsea fluorimeterg/lCalibrated in Aceton
Missing or incorrect values are displayed as -999
Sea surface data collected by the RV Zeeleeuw from 2009-06-08 07:07:44 to 2009-06-08 14:58:17
                                                                                    Next 1000 lines
Time Latitude Longitude Temperature Conductivity Salinity ChlorophylA
2009-06-08 07:07:54 51°13.662 2°55.962 19.2746 0.063304 0.350905 -0.304087
2009-06-08 07:07:59 51°13.662 2°55.962 19.2457 0.063304 0.350911 -0.269263
2009-06-08 07:08:04 51°13.663 2°55.962 19.2771 0.063304 0.350911 -0.304087
2009-06-08 07:08:09 51°13.662 2°55.962 19.2738 0.063304 0.350917 -0.269263
2009-06-08 07:08:14 51°13.662 2°55.962 19.2802 0.063304 0.350924 -0.304087
2009-06-08 07:08:19 51°13.662 2°55.962 19.2795 0.063304 0.350924 -0.304087
2009-06-08 07:08:24 51°13.662 2°55.962 19.2809 0.063304 0.35093 -0.304087
2009-06-08 07:08:29 51°13.662 2°55.962 19.2789 0.063304 0.350936 -0.269263
2009-06-08 07:08:34 51°13.662 2°55.962 19.2768 0.063304 0.350943 -0.269263
2009-06-08 07:08:39 51°13.662 2°55.962 19.2764 0.063304 0.350949 -0.304087
2009-06-08 07:08:44 51°13.662 2°55.962 19.28 0.063304 0.350949 -0.304087
2009-06-08 07:08:49 51°13.662 2°55.962 19.2823 0.063304 0.350949 -0.304087
2009-06-08 07:08:54 51°13.662 2°55.962 19.2894 0.063304 0.350955 -0.304087
2009-06-08 07:08:59 51°13.662 2°55.962 19.2841 0.063304 0.350962 -0.269263
2009-06-08 07:09:04 51°13.662 2°55.962 19.284 0.063304 0.350968 -0.269263
2009-06-08 07:09:09 51°13.662 2°55.962 19.2833 0.063304 0.350968 -0.269263
2009-06-08 07:09:14 51°13.662 2°55.962 19.2847 0.063304 0.350974 -0.304087
2009-06-08 07:09:19 51°13.662 2°55.962 19.2851 0.063304 0.350974 -0.304087
2009-06-08 07:09:24 51°13.662 2°55.962 19.287 0.063304 0.350981 -0.304087
2009-06-08 07:09:29 51°13.662 2°55.962 19.2844 0.063304 0.350987 -0.304087
2009-06-08 07:09:34 51°13.662 2°55.962 19.2838 0.063304 0.350993 -0.269263
2009-06-08 07:09:39 51°13.662 2°55.962 19.2845 0.063304 0.351 -0.304087
2009-06-08 07:09:44 51°13.662 2°55.962 19.2849 0.063304 0.351 -0.304087
2009-06-08 07:09:49 51°13.662 2°55.962 19.2871 0.063304 0.351 -0.304087
2009-06-08 07:09:54 51°13.662 2°55.962 19.286 0.063304 0.351006 -0.269263
2009-06-08 07:09:59 51°13.662 2°55.962 19.2877 0.063304 0.351012 -0.304087
2009-06-08 07:10:04 51°13.662 2°55.961 19.288 0.063304 0.351019 -0.304087
2009-06-08 07:10:09 51°13.662 2°55.961 19.2871 0.063304 0.351025 -0.269263
2009-06-08 07:10:14 51°13.662 2°55.962 19.2871 0.063304 0.351025 -0.304087
2009-06-08 07:10:19 51°13.662 2°55.962 19.2865 0.063304 0.351025 -0.304087
2009-06-08 07:10:24 51°13.663 2°55.962 19.2861 0.063304 0.351031 -0.304087
2009-06-08 07:10:29 51°13.662 2°55.961 19.2933 0.063304 0.351038 -0.304087
2009-06-08 07:10:34 51°13.662 2°55.961 19.2946 0.063304 0.351044 -0.304087
2009-06-08 07:10:39 51°13.662 2°55.961 19.2953 0.063304 0.35105 -0.269263
2009-06-08 07:10:44 51°13.662 2°55.961 19.2963 0.063304 0.35105 -0.269263
2009-06-08 07:10:49 51°13.662 2°55.961 19.2979 0.063304 0.35105 -0.269263
2009-06-08 07:10:54 51°13.662 2°55.961 19.2986 0.063304 0.351057 -0.304087
2009-06-08 07:10:59 51°13.662 2°55.961 19.2991 0.063304 0.351063 -0.304087
2009-06-08 07:11:04 51°13.662 2°55.961 19.2987 0.063304 0.351069 -0.304087
2009-06-08 07:11:09 51°13.662 2°55.961 19.2992 0.063304 0.351076 -0.269263
2009-06-08 07:11:14 51°13.663 2°55.961 19.2998 0.063304 0.351076 -0.269263
2009-06-08 07:11:19 51°13.663 2°55.961 19.2988 0.063304 0.351076 -0.269263
2009-06-08 07:11:24 51°13.662 2°55.961 19.2993 0.063304 0.351082 -0.304087
2009-06-08 07:11:29 51°13.662 2°55.961 19.2985 0.063304 0.351088 -0.304087
2009-06-08 07:11:34 51°13.662 2°55.961 19.2984 0.063304 0.351095 -0.269263
2009-06-08 07:11:39 51°13.662 2°55.961 19.2997 0.063304 0.351101 -0.269263
2009-06-08 07:11:44 51°13.662 2°55.961 19.301 0.063304 0.351107 -0.269263
2009-06-08 07:11:49 51°13.662 2°55.961 19.3011 0.063304 0.351107 -0.269263
2009-06-08 07:11:54 51°13.662 2°55.961 19.3024 0.063304 0.351114 -0.269263
2009-06-08 07:11:59 51°13.662 2°55.961 19.3033 0.063304 0.351114 -0.304087
2009-06-08 07:12:04 51°13.662 2°55.961 19.3041 0.063304 0.35112 -0.269263
2009-06-08 07:12:09 51°13.662 2°55.961 19.3046 0.063304 0.351126 -0.304087
2009-06-08 07:12:14 51°13.662 2°55.961 19.3051 0.063304 0.351133 -0.304087
2009-06-08 07:12:19 51°13.662 2°55.961 19.3048 0.063304 0.351133 -0.304087
2009-06-08 07:12:24 51°13.662 2°55.961 19.3048 0.063304 0.351133 -0.304087
2009-06-08 07:12:29 51°13.662 2°55.961 19.3062 0.063304 0.351139 -0.269263
2009-06-08 07:12:34 51°13.662 2°55.961 19.3066 0.063304 0.351145 -0.269263
2009-06-08 07:12:39 51°13.662 2°55.961 19.3068 0.063304 0.351152 -0.304087
2009-06-08 07:12:44 51°13.662 2°55.961 19.308 0.063304 0.351158 -0.269263
2009-06-08 07:12:49 51°13.662 2°55.961 19.3099 0.063304 0.351158 -0.269263
2009-06-08 07:12:54 51°13.661 2°55.961 19.3105 0.063304 0.351164 -0.304087
2009-06-08 07:12:59 51°13.661 2°55.961 19.311 0.063304 0.351164 -0.269263
2009-06-08 07:13:04 51°13.661 2°55.961 19.3124 0.063304 0.351177 -0.269263
2009-06-08 07:13:09 51°13.661 2°55.961 19.314 0.063304 0.351177 -0.304087
2009-06-08 07:13:14 51°13.661 2°55.961 19.3152 0.063304 0.351183 -0.304087
2009-06-08 07:13:19 51°13.661 2°55.961 19.3158 0.063304 0.351183 -0.304087
2009-06-08 07:13:24 51°13.661 2°55.961 19.3162 0.063304 0.35119 -0.304087
2009-06-08 07:13:29 51°13.661 2°55.961 19.3151 0.063304 0.35119 -0.304087
2009-06-08 07:13:34 51°13.661 2°55.961 19.3152 0.063304 0.351196 -0.304087
2009-06-08 07:13:39 51°13.661 2°55.961 19.3152 0.063304 0.351202 -0.304087
2009-06-08 07:13:44 51°13.661 2°55.961 19.3167 0.063304 0.351209 -0.269263
2009-06-08 07:13:49 51°13.661 2°55.961 19.3162 0.063304 0.351209 -0.269263
2009-06-08 07:13:54 51°13.661 2°55.961 19.316 0.063304 0.351215 -0.304087
2009-06-08 07:13:59 51°13.661 2°55.961 19.3174 0.063304 0.351221 -0.304087
2009-06-08 07:14:04 51°13.661 2°55.961 19.3155 0.063304 0.351228 -0.304087
2009-06-08 07:14:09 51°13.661 2°55.961 19.3196 0.063304 0.351234 -0.269263
2009-06-08 07:14:14 51°13.661 2°55.961 19.3155 0.063304 0.35124 -0.304087
2009-06-08 07:14:19 51°13.661 2°55.961 19.3161 0.063304 0.35124 -0.304087
2009-06-08 07:14:24 51°13.662 2°55.961 19.3235 0.063304 0.35124 -0.304087
2009-06-08 07:14:29 51°13.661 2°55.961 19.3301 0.063304 0.351247 -0.304087
2009-06-08 07:14:34 51°13.661 2°55.961 19.3312 0.063304 0.351253 -0.304087
2009-06-08 07:14:39 51°13.661 2°55.961 19.329 0.063304 0.351259 -0.269263
2009-06-08 07:14:44 51°13.661 2°55.961 19.3288 0.063304 0.351266 -0.304087
2009-06-08 07:14:49 51°13.661 2°55.961 19.3315 0.063304 0.351266 -0.304087
2009-06-08 07:14:54 51°13.661 2°55.961 19.3285 0.063304 0.351266 -0.269263
2009-06-08 07:14:59 51°13.661 2°55.961 19.3302 0.063304 0.351272 -0.269263
2009-06-08 07:15:04 51°13.661 2°55.962 19.3297 0.063304 0.351278 -0.304087
2009-06-08 07:15:09 51°13.661 2°55.961 19.3297 0.063304 0.351285 -0.304087
2009-06-08 07:15:14 51°13.661 2°55.961 19.3291 0.063304 0.351291 -0.304087
2009-06-08 07:15:19 51°13.661 2°55.961 19.3315 0.063304 0.351291 -0.304087
2009-06-08 07:15:24 51°13.661 2°55.961 19.3518 0.063304 0.351297 -0.304087
2009-06-08 07:15:29 51°13.661 2°55.961 19.36 0.063304 0.351297 -0.304087
2009-06-08 07:15:34 51°13.661 2°55.961 19.3595 0.063304 0.351304 -0.304087
2009-06-08 07:15:39 51°13.661 2°55.961 19.3569 0.063304 0.35131 -0.269263
2009-06-08 07:15:44 51°13.661 2°55.961 19.349 0.063304 0.351316 -0.304087
2009-06-08 07:15:49 51°13.661 2°55.961 19.3444 0.063304 0.351316 -0.304087
2009-06-08 07:15:54 51°13.661 2°55.961 19.3392 0.063304 0.351323 -0.269263
2009-06-08 07:15:59 51°13.661 2°55.961 19.3386 0.063304 0.351323 -0.269263
2009-06-08 07:16:04 51°13.661 2°55.961 19.3373 0.063304 0.351329 -0.304087
2009-06-08 07:16:09 51°13.661 2°55.961 19.3387 0.063304 0.351335 -0.304087
2009-06-08 07:16:14 51°13.661 2°55.961 19.3383 0.063304 0.351342 -0.304087
2009-06-08 07:16:19 51°13.662 2°55.961 19.3397 0.063304 0.351342 -0.304087
2009-06-08 07:16:24 51°13.662 2°55.961 19.3409 0.063304 0.351348 -0.269263
2009-06-08 07:16:29 51°13.662 2°55.961 19.3415 0.063304 0.351354 -0.304087
2009-06-08 07:16:34 51°13.661 2°55.961 19.3412 0.063304 0.351361 -0.269263
2009-06-08 07:16:39 51°13.661 2°55.961 19.3421 0.063304 0.351361 -0.304087
2009-06-08 07:16:44 51°13.661 2°55.961 19.3421 0.063304 0.351367 -0.304087
2009-06-08 07:16:49 51°13.661 2°55.961 19.3426 0.063304 0.351367 -0.304087
2009-06-08 07:16:54 51°13.661 2°55.961 19.3428 0.063304 0.351373 -0.304087
2009-06-08 07:16:59 51°13.661 2°55.961 19.3437 0.063304 0.35138 -0.269263
2009-06-08 07:17:04 51°13.662 2°55.961 19.3434 0.063304 0.35138 -0.304087
2009-06-08 07:17:09 51°13.662 2°55.961 19.3427 0.063304 0.351393 -0.304087
2009-06-08 07:17:14 51°13.662 2°55.961 19.3429 0.063304 0.351393 -0.304087
2009-06-08 07:17:19 51°13.662 2°55.961 19.3435 0.063304 0.351393 -0.304087
2009-06-08 07:17:24 51°13.662 2°55.961 19.3448 0.063304 0.351399 -0.304087
2009-06-08 07:17:29 51°13.662 2°55.961 19.3466 0.063304 0.351405 -0.304087
2009-06-08 07:17:34 51°13.662 2°55.961 19.3478 0.063304 0.351412 -0.304087
2009-06-08 07:17:39 51°13.662 2°55.961 19.3495 0.063304 0.351412 -0.304087
2009-06-08 07:17:44 51°13.662 2°55.961 19.3496 0.063304 0.351418 -0.269263
2009-06-08 07:17:49 51°13.662 2°55.961 19.3502 0.063304 0.351418 -0.269263
2009-06-08 07:17:54 51°13.662 2°55.961 19.3512 0.063304 0.351424 -0.304087
2009-06-08 07:17:59 51°13.662 2°55.961 19.3514 0.063304 0.351431 -0.269263
2009-06-08 07:18:04 51°13.662 2°55.961 19.3512 0.063304 0.351437 -0.304087
2009-06-08 07:18:09 51°13.662 2°55.961 19.3509 0.063304 0.351437 -0.304087
2009-06-08 07:18:14 51°13.662 2°55.961 19.351 0.063304 0.351443 -0.304087
2009-06-08 07:18:19 51°13.662 2°55.961 19.3511 0.063304 0.351443 -0.304087
2009-06-08 07:18:24 51°13.662 2°55.961 19.3499 0.063304 0.35145 -0.304087
2009-06-08 07:18:29 51°13.662 2°55.961 19.3504 0.063304 0.351456 -0.304087
2009-06-08 07:18:34 51°13.662 2°55.961 19.3502 0.063304 0.351462 -0.304087
2009-06-08 07:18:39 51°13.662 2°55.962 19.3519 0.063304 0.351462 -0.304087
2009-06-08 07:18:44 51°13.662 2°55.962 19.3526 0.063304 0.351469 -0.269263
2009-06-08 07:18:49 51°13.662 2°55.962 19.3533 0.063304 0.351469 -0.269263
2009-06-08 07:18:54 51°13.662 2°55.962 19.352 0.063304 0.351475 -0.304087
2009-06-08 07:18:59 51°13.662 2°55.961 19.3525 0.063304 0.351481 -0.269263
2009-06-08 07:19:04 51°13.662 2°55.961 19.3542 0.063304 0.351488 -0.304087
2009-06-08 07:19:09 51°13.662 2°55.961 19.3542 0.063201 0.350898 -0.269263
2009-06-08 07:19:14 51°13.662 2°55.962 19.3542 0.063304 0.3515 -0.304087
2009-06-08 07:19:19 51°13.662 2°55.962 19.356 0.063304 0.3515 -0.304087
2009-06-08 07:19:24 51°13.662 2°55.961 19.3575 0.063201 0.350911 -0.304087
2009-06-08 07:19:29 51°13.662 2°55.962 19.3594 0.063304 0.351507 -0.304087
2009-06-08 07:19:34 51°13.662 2°55.962 19.3605 0.063201 0.350924 -0.269263
2009-06-08 07:19:39 51°13.662 2°55.962 19.3613 0.063201 0.350924 -0.304087
2009-06-08 07:19:44 51°13.662 2°55.962 19.3617 0.063201 0.35093 -0.304087
2009-06-08 07:19:49 51°13.662 2°55.962 19.3624 0.063201 0.35093 -0.304087
2009-06-08 07:19:54 51°13.662 2°55.962 19.3613 0.063201 0.350936 -0.304087
2009-06-08 07:19:59 51°13.662 2°55.962 19.361 0.063201 0.350943 -0.304087
2009-06-08 07:20:04 51°13.661 2°55.961 19.3596 0.063201 0.350949 -0.304087
2009-06-08 07:20:09 51°13.661 2°55.961 19.359 0.063201 0.350955 -0.304087
2009-06-08 07:20:14 51°13.661 2°55.959 19.3599 0.063201 0.350955 -0.304087
2009-06-08 07:20:19 51°13.661 2°55.959 19.3604 0.063201 0.350955 -0.304087
2009-06-08 07:20:24 51°13.662 2°55.959 19.3614 0.063201 0.350962 -0.269263
2009-06-08 07:20:29 51°13.662 2°55.96 19.3614 0.063201 0.350968 -0.269263
2009-06-08 07:20:34 51°13.662 2°55.96 19.3616 0.063201 0.350974 -0.304087
2009-06-08 07:20:39 51°13.662 2°55.961 19.3628 0.063201 0.350974 -0.304087
2009-06-08 07:20:44 51°13.662 2°55.961 19.3637 0.063201 0.350981 -0.304087
2009-06-08 07:20:49 51°13.661 2°55.96 19.3649 0.063201 0.350981 -0.304087
2009-06-08 07:20:54 51°13.661 2°55.96 19.3654 0.063201 0.350987 -0.304087
2009-06-08 07:20:59 51°13.661 2°55.96 19.3664 0.063201 0.350994 -0.304087
2009-06-08 07:21:04 51°13.662 2°55.96 19.3657 0.063201 0.351 -0.304087
2009-06-08 07:21:09 51°13.662 2°55.96 19.3678 0.063201 0.351 -0.304087
2009-06-08 07:21:14 51°13.662 2°55.96 19.3678 0.063201 0.351006 -0.304087
2009-06-08 07:21:19 51°13.662 2°55.96 19.3687 0.063201 0.351006 -0.304087
2009-06-08 07:21:24 51°13.661 2°55.961 19.3679 0.063201 0.351013 -0.304087
2009-06-08 07:21:29 51°13.661 2°55.961 19.3687 0.063201 0.351019 -0.269263
2009-06-08 07:21:34 51°13.661 2°55.961 19.3694 0.063201 0.351025 -0.304087
2009-06-08 07:21:39 51°13.661 2°55.961 19.3705 0.063201 0.351032 -0.269263
2009-06-08 07:21:44 51°13.662 2°55.961 19.3722 0.063201 0.351032 -0.304087
2009-06-08 07:21:49 51°13.661 2°55.961 19.374 0.063201 0.351032 -0.304087
2009-06-08 07:21:54 51°13.661 2°55.961 19.3764 0.063201 0.351038 -0.269263
2009-06-08 07:21:59 51°13.661 2°55.961 19.3755 0.063201 0.351044 -0.304087
2009-06-08 07:22:04 51°13.661 2°55.961 19.376 0.063201 0.351051 -0.304087
2009-06-08 07:22:09 51°13.661 2°55.961 19.3784 0.063201 0.351051 -0.304087
2009-06-08 07:22:14 51°13.662 2°55.961 19.3783 0.063201 0.351057 -0.304087
2009-06-08 07:22:19 51°13.662 2°55.962 19.3804 0.063201 0.351057 -0.304087
2009-06-08 07:22:24 51°13.662 2°55.962 19.3803 0.063201 0.351063 -0.304087
2009-06-08 07:22:29 51°13.662 2°55.962 19.3804 0.063201 0.35107 -0.304087
2009-06-08 07:22:34 51°13.662 2°55.962 19.3805 0.063201 0.351076 -0.304087
2009-06-08 07:22:39 51°13.662 2°55.962 19.3813 0.063201 0.351076 -0.304087
2009-06-08 07:22:44 51°13.662 2°55.962 19.3809 0.063201 0.351082 -0.304087
2009-06-08 07:22:49 51°13.662 2°55.963 19.3815 0.063201 0.351082 -0.304087
2009-06-08 07:22:54 51°13.662 2°55.963 19.3811 0.063201 0.351089 -0.304087
2009-06-08 07:22:59 51°13.662 2°55.962 19.3819 0.063201 0.351095 -0.304087
2009-06-08 07:23:04 51°13.662 2°55.962 19.3793 0.063201 0.351101 -0.304087
2009-06-08 07:23:09 51°13.662 2°55.962 19.3755 0.063201 0.351108 -0.304087
2009-06-08 07:23:14 51°13.662 2°55.962 19.3784 0.063201 0.351108 -0.269263
2009-06-08 07:23:19 51°13.662 2°55.962 19.3792 0.063201 0.351108 -0.269263
2009-06-08 07:23:24 51°13.662 2°55.962 19.3819 0.063201 0.351114 -0.304087
2009-06-08 07:23:29 51°13.662 2°55.962 19.383 0.063201 0.35112 -0.304087
2009-06-08 07:23:34 51°13.662 2°55.962 19.3845 0.063201 0.351127 -0.304087
2009-06-08 07:23:39 51°13.662 2°55.963 19.3858 0.063201 0.351133 -0.304087
2009-06-08 07:23:44 51°13.662 2°55.963 19.3867 0.063201 0.351133 -0.304087
2009-06-08 07:23:49 51°13.662 2°55.963 19.3863 0.063201 0.351133 -0.304087
2009-06-08 07:23:54 51°13.662 2°55.963 19.3858 0.063201 0.351139 -0.304087
2009-06-08 07:23:59 51°13.662 2°55.962 19.3869 0.063201 0.351146 -0.269263
2009-06-08 07:24:04 51°13.662 2°55.963 19.3869 0.063201 0.351152 -0.304087
2009-06-08 07:24:09 51°13.662 2°55.963 19.3892 0.063201 0.351152 -0.269263
2009-06-08 07:24:14 51°13.662 2°55.963 19.3899 0.063201 0.351158 -0.304087
2009-06-08 07:24:19 51°13.662 2°55.963 19.3925 0.063201 0.351158 -0.304087
2009-06-08 07:24:24 51°13.662 2°55.961 19.3939 0.063201 0.351165 -0.304087
2009-06-08 07:24:29 51°13.662 2°55.961 19.3948 0.063201 0.351171 -0.304087
2009-06-08 07:24:34 51°13.662 2°55.961 19.3954 0.063201 0.351171 -0.304087
2009-06-08 07:24:39 51°13.662 2°55.961 19.3948 0.063201 0.351184 -0.304087
2009-06-08 07:24:44 51°13.662 2°55.961 19.3956 0.063201 0.351184 -0.269263
2009-06-08 07:24:49 51°13.662 2°55.961 19.3954 0.063201 0.351184 -0.269263
2009-06-08 07:24:54 51°13.662 2°55.962 19.3955 0.063201 0.35119 -0.269263
2009-06-08 07:24:59 51°13.662 2°55.962 19.395 0.063201 0.351197 -0.304087
2009-06-08 07:25:04 51°13.662 2°55.962 19.3953 0.063201 0.351197 -0.304087
2009-06-08 07:25:09 51°13.662 2°55.963 19.3962 0.063201 0.351203 -0.304087
2009-06-08 07:25:14 51°13.662 2°55.963 19.3968 0.063201 0.351209 -0.269263
2009-06-08 07:25:19 51°13.662 2°55.962 19.3973 0.063201 0.351209 -0.269263
2009-06-08 07:25:24 51°13.662 2°55.961 19.3965 0.063201 0.351216 -0.269263
2009-06-08 07:25:29 51°13.662 2°55.961 19.3974 0.063201 0.351222 -0.304087
2009-06-08 07:25:34 51°13.662 2°55.961 19.399 0.063201 0.351228 -0.304087
2009-06-08 07:25:39 51°13.662 2°55.961 19.4 0.063201 0.351228 -0.304087
2009-06-08 07:25:44 51°13.662 2°55.961 19.4003 0.063201 0.351235 -0.304087
2009-06-08 07:25:49 51°13.662 2°55.961 19.401 0.063201 0.351235 -0.304087
2009-06-08 07:25:54 51°13.662 2°55.961 19.402 0.063201 0.351241 -0.304087
2009-06-08 07:25:59 51°13.662 2°55.961 19.4006 0.063201 0.351247 -0.304087
2009-06-08 07:26:04 51°13.661 2°55.96 19.3957 0.063201 0.351247 -0.304087
2009-06-08 07:26:09 51°13.661 2°55.96 19.3911 0.063201 0.351254 -0.304087
2009-06-08 07:26:14 51°13.661 2°55.96 19.3958 0.063201 0.35126 -0.304087
2009-06-08 07:26:19 51°13.661 2°55.96 19.3971 0.063201 0.35126 -0.304087
2009-06-08 07:26:24 51°13.661 2°55.96 19.3992 0.063201 0.351266 -0.304087
2009-06-08 07:26:29 51°13.661 2°55.96 19.4004 0.063201 0.351266 -0.304087
2009-06-08 07:26:34 51°13.661 2°55.96 19.3992 0.063201 0.351273 -0.304087
2009-06-08 07:26:39 51°13.661 2°55.961 19.4006 0.063201 0.351279 -0.304087
2009-06-08 07:26:44 51°13.661 2°55.961 19.4046 0.063201 0.351285 -0.304087
2009-06-08 07:26:49 51°13.661 2°55.961 19.4041 0.063201 0.351285 -0.304087
2009-06-08 07:26:54 51°13.661 2°55.961 19.4054 0.063201 0.351292 -0.304087
2009-06-08 07:26:59 51°13.661 2°55.961 19.4073 0.063201 0.351292 -0.304087
2009-06-08 07:27:04 51°13.661 2°55.961 19.4099 0.063201 0.351298 -0.304087
2009-06-08 07:27:09 51°13.661 2°55.96 19.4128 0.063201 0.351305 -0.304087
2009-06-08 07:27:14 51°13.661 2°55.96 19.4128 0.063201 0.351311 -0.304087
2009-06-08 07:27:19 51°13.661 2°55.96 19.4133 0.063201 0.351311 -0.304087
2009-06-08 07:27:24 51°13.661 2°55.96 19.4142 0.063201 0.351317 -0.304087
2009-06-08 07:27:29 51°13.661 2°55.96 19.4146 0.063201 0.351317 -0.304087
2009-06-08 07:27:34 51°13.661 2°55.961 19.4146 0.063201 0.351324 -0.304087
2009-06-08 07:27:39 51°13.661 2°55.961 19.4152 0.063201 0.35133 -0.304087
2009-06-08 07:27:44 51°13.661 2°55.961 19.4147 0.063201 0.351336 -0.269263
2009-06-08 07:27:49 51°13.661 2°55.961 19.4144 0.063201 0.351336 -0.269263
2009-06-08 07:27:54 51°13.661 2°55.961 19.4103 0.063201 0.351343 -0.269263
2009-06-08 07:27:59 51°13.661 2°55.961 19.3999 0.063201 0.351343 -0.304087
2009-06-08 07:28:04 51°13.661 2°55.961 19.4041 0.063201 0.351349 -0.304087
2009-06-08 07:28:09 51°13.661 2°55.961 19.4145 0.063201 0.351355 -0.304087
2009-06-08 07:28:14 51°13.661 2°55.961 19.4147 0.063201 0.351362 -0.304087
2009-06-08 07:28:19 51°13.661 2°55.961 19.4172 0.063201 0.351362 -0.304087
2009-06-08 07:28:24 51°13.661 2°55.961 19.4181 0.063201 0.351368 -0.304087
2009-06-08 07:28:29 51°13.661 2°55.961 19.4166 0.063201 0.351368 -0.304087
2009-06-08 07:28:34 51°13.661 2°55.961 19.4192 0.063201 0.351374 -0.304087
2009-06-08 07:28:39 51°13.661 2°55.961 19.4167 0.063201 0.351381 -0.304087
2009-06-08 07:28:44 51°13.662 2°55.961 19.4175 0.063201 0.351387 -0.304087
2009-06-08 07:28:49 51°13.662 2°55.961 19.4209 0.063201 0.351387 -0.304087
2009-06-08 07:28:54 51°13.662 2°55.961 19.4237 0.063201 0.351394 -0.304087
2009-06-08 07:28:59 51°13.661 2°55.961 19.4238 0.063201 0.351394 -0.304087
2009-06-08 07:29:04 51°13.661 2°55.961 19.4248 0.063201 0.3514 -0.304087
2009-06-08 07:29:09 51°13.661 2°55.96 19.426 0.063201 0.351406 -0.304087
2009-06-08 07:29:14 51°13.661 2°55.96 19.4265 0.063201 0.351413 -0.304087
2009-06-08 07:29:19 51°13.661 2°55.96 19.4264 0.063201 0.351413 -0.304087
2009-06-08 07:29:24 51°13.661 2°55.961 19.4272 0.063201 0.351413 -0.304087
2009-06-08 07:29:29 51°13.661 2°55.961 19.428 0.063201 0.351419 -0.304087
2009-06-08 07:29:34 51°13.661 2°55.961 19.4294 0.063201 0.351425 -0.304087
2009-06-08 07:29:39 51°13.661 2°55.961 19.4305 0.063201 0.351425 -0.304087
2009-06-08 07:29:44 51°13.661 2°55.961 19.43 0.063201 0.351432 -0.304087
2009-06-08 07:29:49 51°13.662 2°55.961 19.4303 0.063201 0.351432 -0.304087
2009-06-08 07:29:54 51°13.662 2°55.961 19.4307 0.063201 0.351438 -0.269263
2009-06-08 07:29:59 51°13.662 2°55.961 19.4308 0.063201 0.351444 -0.304087
2009-06-08 07:30:04 51°13.662 2°55.961 19.4309 0.063201 0.351451 -0.304087
2009-06-08 07:30:09 51°13.662 2°55.961 19.4317 0.063201 0.351457 -0.304087
2009-06-08 07:30:14 51°13.662 2°55.961 19.4325 0.063201 0.351457 -0.304087
2009-06-08 07:30:19 51°13.662 2°55.961 19.4337 0.063201 0.351457 -0.304087
2009-06-08 07:30:24 51°13.662 2°55.961 19.4337 0.063201 0.351463 -0.304087
2009-06-08 07:30:29 51°13.661 2°55.961 19.4355 0.063201 0.35147 -0.304087
2009-06-08 07:30:34 51°13.662 2°55.962 19.4372 0.063201 0.351476 -0.304087
2009-06-08 07:30:39 51°13.663 2°55.963 19.4385 0.063201 0.351483 -0.304087
2009-06-08 07:30:44 51°13.663 2°55.963 19.4383 0.063201 0.351483 -0.304087
2009-06-08 07:30:49 51°13.664 2°55.964 19.4382 0.063201 0.351483 -0.304087
2009-06-08 07:30:54 51°13.665 2°55.964 19.4375 0.063201 0.351489 -0.304087
2009-06-08 07:30:59 51°13.665 2°55.964 19.438 0.063201 0.351495 -0.304087
2009-06-08 07:31:04 51°13.664 2°55.963 19.4382 0.063201 0.351502 -0.304087
2009-06-08 07:31:09 51°13.663 2°55.962 19.4396 0.063201 0.351502 -0.304087
2009-06-08 07:31:14 51°13.662 2°55.961 19.4404 0.063201 0.351508 -0.304087
2009-06-08 07:31:19 51°13.661 2°55.96 19.4411 0.063201 0.351508 -0.304087
2009-06-08 07:31:24 51°13.661 2°55.96 19.4402 0.063201 0.351514 -0.304087
2009-06-08 07:31:29 51°13.661 2°55.96 19.4397 0.063201 0.351514 -0.304087
2009-06-08 07:31:34 51°13.661 2°55.961 19.4409 0.063201 0.351521 -0.304087
2009-06-08 07:31:39 51°13.662 2°55.961 19.4414 0.063201 0.351527 -0.304087
2009-06-08 07:31:44 51°13.662 2°55.961 19.4426 0.063098 0.350943 -0.304087
2009-06-08 07:31:49 51°13.662 2°55.961 19.4452 0.063098 0.350943 -0.304087
2009-06-08 07:31:54 51°13.662 2°55.962 19.446 0.063098 0.35095 -0.304087
2009-06-08 07:31:59 51°13.662 2°55.962 19.447 0.063098 0.350956 -0.304087
2009-06-08 07:32:04 51°13.662 2°55.962 19.4484 0.063098 0.350956 -0.304087
2009-06-08 07:32:09 51°13.662 2°55.962 19.449 0.063098 0.350962 -0.304087
2009-06-08 07:32:14 51°13.662 2°55.962 19.4498 0.063098 0.350969 -0.304087
2009-06-08 07:32:19 51°13.662 2°55.962 19.4503 0.063098 0.350969 -0.304087
2009-06-08 07:32:24 51°13.662 2°55.962 19.4509 0.063098 0.350975 -0.304087
2009-06-08 07:32:29 51°13.663 2°55.963 19.4518 0.063098 0.350981 -0.304087
2009-06-08 07:32:34 51°13.663 2°55.963 19.452 0.063098 0.350981 -0.304087
2009-06-08 07:32:39 51°13.662 2°55.962 19.4517 0.063098 0.350988 -0.304087
2009-06-08 07:32:44 51°13.66 2°55.96 19.4516 0.063098 0.350988 -0.304087
2009-06-08 07:32:49 51°13.659 2°55.959 19.4518 0.063098 0.350988 -0.304087
2009-06-08 07:32:54 51°13.658 2°55.958 19.45 0.063098 0.351 -0.304087
2009-06-08 07:32:59 51°13.658 2°55.958 19.4495 0.063098 0.351 -0.304087
2009-06-08 07:33:04 51°13.658 2°55.958 19.4493 0.063098 0.351007 -0.304087
2009-06-08 07:33:09 51°13.658 2°55.958 19.4513 0.063098 0.351013 -0.304087
2009-06-08 07:33:14 51°13.659 2°55.959 19.4529 0.063098 0.351019 -0.304087
2009-06-08 07:33:19 51°13.659 2°55.959 19.4551 0.063098 0.351019 -0.304087
2009-06-08 07:33:24 51°13.66 2°55.96 19.4566 0.063098 0.351019 -0.304087
2009-06-08 07:33:29 51°13.66 2°55.96 19.4576 0.063098 0.351026 -0.304087
2009-06-08 07:33:34 51°13.66 2°55.96 19.4574 0.063098 0.351032 -0.304087
2009-06-08 07:33:39 51°13.66 2°55.96 19.4582 0.063098 0.351038 -0.304087
2009-06-08 07:33:44 51°13.66 2°55.96 19.4594 0.063098 0.351045 -0.304087
2009-06-08 07:33:49 51°13.66 2°55.96 19.46 0.063098 0.351045 -0.304087
2009-06-08 07:33:54 51°13.66 2°55.96 19.4607 0.063098 0.351045 -0.304087
2009-06-08 07:33:59 51°13.66 2°55.96 19.4614 0.063098 0.351051 -0.304087
2009-06-08 07:34:04 51°13.66 2°55.96 19.4632 0.063098 0.351058 -0.304087
2009-06-08 07:34:09 51°13.661 2°55.96 19.4634 0.063098 0.351064 -0.304087
2009-06-08 07:34:14 51°13.66 2°55.96 19.4641 0.063098 0.351064 -0.304087
2009-06-08 07:34:19 51°13.661 2°55.961 19.465 0.063098 0.351064 -0.304087
2009-06-08 07:34:24 51°13.661 2°55.961 19.464 0.063098 0.35107 -0.304087
2009-06-08 07:34:29 51°13.661 2°55.961 19.4645 0.063098 0.351077 -0.304087
2009-06-08 07:34:34 51°13.661 2°55.961 19.465 0.063098 0.351077 -0.304087
2009-06-08 07:34:39 51°13.661 2°55.961 19.4652 0.063098 0.351083 -0.304087
2009-06-08 07:34:44 51°13.661 2°55.961 19.4655 0.063098 0.351089 -0.304087
2009-06-08 07:34:49 51°13.661 2°55.961 19.464 0.063098 0.351089 -0.304087
2009-06-08 07:34:54 51°13.661 2°55.962 19.4652 0.063098 0.351096 -0.304087
2009-06-08 07:34:59 51°13.661 2°55.962 19.4655 0.063098 0.351102 -0.304087
2009-06-08 07:35:04 51°13.661 2°55.962 19.4662 0.063098 0.351102 -0.304087
2009-06-08 07:35:09 51°13.661 2°55.962 19.4677 0.063098 0.351108 -0.304087
2009-06-08 07:35:14 51°13.661 2°55.962 19.4685 0.063098 0.351115 -0.304087
2009-06-08 07:35:19 51°13.661 2°55.962 19.4696 0.063098 0.351115 -0.304087
2009-06-08 07:35:24 51°13.662 2°55.962 19.4702 0.063098 0.351121 -0.304087
2009-06-08 07:35:29 51°13.662 2°55.962 19.473 0.063098 0.351127 -0.304087
2009-06-08 07:35:34 51°13.662 2°55.962 19.4738 0.063098 0.351127 -0.304087
2009-06-08 07:35:39 51°13.662 2°55.962 19.4742 0.063098 0.351134 -0.304087
2009-06-08 07:35:44 51°13.662 2°55.962 19.4759 0.063098 0.35114 -0.304087
2009-06-08 07:35:49 51°13.662 2°55.962 19.4768 0.063098 0.35114 -0.304087
2009-06-08 07:35:54 51°13.662 2°55.962 19.4773 0.063098 0.351147 -0.304087
2009-06-08 07:35:59 51°13.662 2°55.962 19.4779 0.063098 0.351147 -0.304087
2009-06-08 07:36:04 51°13.662 2°55.962 19.4789 0.063098 0.351153 -0.304087
2009-06-08 07:36:09 51°13.662 2°55.962 19.4778 0.063098 0.351153 -0.304087
2009-06-08 07:36:14 51°13.662 2°55.962 19.48 0.063098 0.351166 -0.304087
2009-06-08 07:36:19 51°13.662 2°55.962 19.4894 0.063098 0.351166 -0.304087
2009-06-08 07:36:24 51°13.662 2°55.962 19.4866 0.063098 0.351166 -0.304087
2009-06-08 07:36:29 51°13.662 2°55.962 19.4883 0.063098 0.351172 -0.304087
2009-06-08 07:36:34 51°13.662 2°55.963 19.4886 0.063098 0.351178 -0.304087
2009-06-08 07:36:39 51°13.662 2°55.963 19.4852 0.063098 0.351185 -0.304087
2009-06-08 07:36:44 51°13.662 2°55.963 19.4871 0.063098 0.351185 -0.304087
2009-06-08 07:36:49 51°13.663 2°55.963 19.4867 0.063098 0.351185 -0.304087
2009-06-08 07:36:54 51°13.663 2°55.962 19.4846 0.063098 0.351191 -0.304087
2009-06-08 07:36:59 51°13.663 2°55.962 19.485 0.063098 0.351191 -0.304087
2009-06-08 07:37:04 51°13.663 2°55.962 19.4863 0.063098 0.351197 -0.304087
2009-06-08 07:37:09 51°13.663 2°55.963 19.4834 0.063098 0.351204 -0.304087
2009-06-08 07:37:14 51°13.663 2°55.963 19.4817 0.063098 0.35121 -0.304087
2009-06-08 07:37:19 51°13.663 2°55.963 19.4811 0.063098 0.35121 -0.304087
2009-06-08 07:37:24 51°13.663 2°55.963 19.4831 0.063098 0.35121 -0.304087
2009-06-08 07:37:29 51°13.663 2°55.963 19.4856 0.063098 0.351223 -0.304087
2009-06-08 07:37:34 51°13.663 2°55.963 19.488 0.063098 0.351223 -0.304087
2009-06-08 07:37:39 51°13.663 2°55.963 19.4916 0.063098 0.351229 -0.304087
2009-06-08 07:37:44 51°13.663 2°55.963 19.4909 0.063098 0.351229 -0.304087
2009-06-08 07:37:49 51°13.663 2°55.963 19.4893 0.063098 0.351229 -0.304087
2009-06-08 07:37:54 51°13.663 2°55.963 19.4912 0.063098 0.351236 -0.304087
2009-06-08 07:37:59 51°13.663 2°55.963 19.4914 0.063098 0.351242 -0.304087
2009-06-08 07:38:04 51°13.663 2°55.963 19.4917 0.063098 0.351248 -0.304087
2009-06-08 07:38:09 51°13.663 2°55.963 19.4913 0.063098 0.351255 -0.304087
2009-06-08 07:38:14 51°13.663 2°55.963 19.4935 0.063098 0.351255 -0.304087
2009-06-08 07:38:19 51°13.663 2°55.963 19.4939 0.063098 0.351255 -0.304087
2009-06-08 07:38:24 51°13.663 2°55.963 19.494 0.063098 0.351261 -0.304087
2009-06-08 07:38:29 51°13.663 2°55.963 19.4936 0.063098 0.351267 -0.304087
2009-06-08 07:38:34 51°13.663 2°55.963 19.4936 0.063098 0.351274 -0.304087
2009-06-08 07:38:39 51°13.663 2°55.963 19.4937 0.063098 0.351274 -0.304087
2009-06-08 07:38:44 51°13.663 2°55.963 19.4923 0.063098 0.35128 -0.304087
2009-06-08 07:38:49 51°13.663 2°55.963 19.4936 0.063098 0.35128 -0.304087
2009-06-08 07:38:54 51°13.663 2°55.963 19.4951 0.063098 0.35128 -0.304087
2009-06-08 07:38:59 51°13.662 2°55.963 19.4965 0.063098 0.351287 -0.304087
2009-06-08 07:39:04 51°13.663 2°55.963 19.498 0.063098 0.351293 -0.304087
2009-06-08 07:39:09 51°13.663 2°55.963 19.4985 0.063098 0.351299 -0.304087
2009-06-08 07:39:14 51°13.663 2°55.963 19.4995 0.063098 0.351299 -0.304087
2009-06-08 07:39:19 51°13.663 2°55.963 19.4999 0.063098 0.351299 -0.304087
2009-06-08 07:39:24 51°13.663 2°55.963 19.5001 0.063098 0.351312 -0.304087
2009-06-08 07:39:29 51°13.663 2°55.963 19.5007 0.063098 0.351312 -0.304087
2009-06-08 07:39:34 51°13.663 2°55.963 19.5012 0.063098 0.351318 -0.304087
2009-06-08 07:39:39 51°13.663 2°55.963 19.5016 0.063098 0.351318 -0.304087
2009-06-08 07:39:44 51°13.663 2°55.962 19.5025 0.063098 0.351325 -0.304087
2009-06-08 07:39:49 51°13.663 2°55.962 19.5021 0.063098 0.351325 -0.304087
2009-06-08 07:39:54 51°13.662 2°55.962 19.4959 0.063098 0.351331 -0.304087
2009-06-08 07:39:59 51°13.662 2°55.962 19.4982 0.063098 0.351338 -0.304087
2009-06-08 07:40:04 51°13.662 2°55.962 19.5009 0.063098 0.351344 -0.304087
2009-06-08 07:40:09 51°13.662 2°55.962 19.5005 0.063098 0.351344 -0.304087
2009-06-08 07:40:14 51°13.662 2°55.962 19.4999 0.063098 0.35135 -0.304087
2009-06-08 07:40:19 51°13.662 2°55.962 19.5019 0.063098 0.35135 -0.304087
2009-06-08 07:40:24 51°13.662 2°55.962 19.5019 0.063098 0.351357 -0.304087
2009-06-08 07:40:29 51°13.662 2°55.962 19.5009 0.063098 0.351363 -0.304087
2009-06-08 07:40:34 51°13.662 2°55.962 19.5004 0.063098 0.351363 -0.304087
2009-06-08 07:40:39 51°13.662 2°55.962 19.5028 0.063098 0.351369 -0.304087
2009-06-08 07:40:44 51°13.662 2°55.962 19.5055 0.063098 0.351376 -0.304087
2009-06-08 07:40:49 51°13.662 2°55.962 19.5067 0.063098 0.351376 -0.304087
2009-06-08 07:40:54 51°13.662 2°55.962 19.5089 0.063098 0.351382 -0.304087
2009-06-08 07:40:59 51°13.662 2°55.962 19.5091 0.063098 0.351382 -0.304087
2009-06-08 07:41:04 51°13.663 2°55.964 19.5096 0.063098 0.351389 -0.304087
2009-06-08 07:41:09 51°13.664 2°55.964 19.5111 0.063098 0.351395 -0.304087
2009-06-08 07:41:14 51°13.663 2°55.964 19.5107 0.063098 0.351401 -0.304087
2009-06-08 07:41:19 51°13.662 2°55.962 19.5104 0.063098 0.351401 -0.304087
2009-06-08 07:41:24 51°13.661 2°55.962 19.5111 0.063098 0.351401 -0.304087
2009-06-08 07:41:29 51°13.662 2°55.962 19.5136 0.063098 0.351408 -0.304087
2009-06-08 07:41:34 51°13.662 2°55.963 19.514 0.063098 0.351414 -0.304087
2009-06-08 07:41:39 51°13.662 2°55.963 19.5176 0.063098 0.35142 -0.304087
2009-06-08 07:41:44 51°13.663 2°55.963 19.5188 0.063098 0.35142 -0.304087
2009-06-08 07:41:49 51°13.663 2°55.963 19.519 0.063098 0.35142 -0.304087
2009-06-08 07:41:54 51°13.663 2°55.964 19.5192 0.063098 0.351427 -0.304087
2009-06-08 07:41:59 51°13.663 2°55.964 19.5162 0.063098 0.351433 -0.304087
2009-06-08 07:42:04 51°13.664 2°55.964 19.5161 0.063098 0.351439 -0.269263
2009-06-08 07:42:09 51°13.664 2°55.963 19.514 0.063098 0.351439 -0.304087
2009-06-08 07:42:14 51°13.664 2°55.964 19.5114 0.063098 0.351446 -0.304087
2009-06-08 07:42:19 51°13.664 2°55.963 19.517 0.063098 0.351446 -0.304087
2009-06-08 07:42:24 51°13.663 2°55.963 19.5205 0.063098 0.351452 -0.304087
2009-06-08 07:42:29 51°13.663 2°55.963 19.5224 0.063098 0.351459 -0.304087
2009-06-08 07:42:34 51°13.663 2°55.963 19.5226 0.063098 0.351459 -0.304087
2009-06-08 07:42:39 51°13.664 2°55.964 19.5241 0.063098 0.351465 -0.304087
2009-06-08 07:42:44 51°13.664 2°55.964 19.5243 0.063098 0.351465 -0.304087
2009-06-08 07:42:49 51°13.664 2°55.964 19.5256 0.063098 0.351465 -0.304087
2009-06-08 07:42:54 51°13.664 2°55.963 19.5264 0.063098 0.351471 -0.304087
2009-06-08 07:42:59 51°13.663 2°55.963 19.5257 0.063098 0.351478 -0.304087
2009-06-08 07:43:04 51°13.663 2°55.963 19.5267 0.063098 0.351484 -0.304087
2009-06-08 07:43:09 51°13.663 2°55.963 19.5274 0.063098 0.35149 -0.304087
2009-06-08 07:43:14 51°13.663 2°55.964 19.528 0.063098 0.351497 -0.304087
2009-06-08 07:43:19 51°13.664 2°55.964 19.5293 0.063098 0.351497 -0.304087
2009-06-08 07:43:24 51°13.664 2°55.964 19.5287 0.063098 0.351497 -0.304087
2009-06-08 07:43:29 51°13.664 2°55.965 19.5292 0.063098 0.351503 -0.304087
2009-06-08 07:43:34 51°13.664 2°55.964 19.5293 0.063098 0.35151 -0.304087
2009-06-08 07:43:39 51°13.664 2°55.964 19.5304 0.063098 0.35151 -0.304087
2009-06-08 07:43:44 51°13.664 2°55.964 19.5311 0.063098 0.351516 -0.304087
2009-06-08 07:43:49 51°13.664 2°55.964 19.5319 0.063098 0.351516 -0.304087
2009-06-08 07:43:54 51°13.664 2°55.964 19.5333 0.063098 0.351522 -0.304087
2009-06-08 07:43:59 51°13.664 2°55.963 19.5328 0.063098 0.351522 -0.304087
2009-06-08 07:44:04 51°13.663 2°55.963 19.5325 0.063098 0.351529 -0.304087
2009-06-08 07:44:09 51°13.663 2°55.963 19.5315 0.063098 0.351535 -0.304087
2009-06-08 07:44:14 51°13.662 2°55.962 19.5334 0.063098 0.351542 -0.304087
2009-06-08 07:44:19 51°13.663 2°55.963 19.533 0.063098 0.351542 -0.304087
2009-06-08 07:44:24 51°13.662 2°55.962 19.5336 0.063098 0.351542 -0.304087
2009-06-08 07:44:29 51°13.662 2°55.962 19.5356 0.063098 0.351548 -0.304087
2009-06-08 07:44:34 51°13.662 2°55.962 19.5363 0.063098 0.351554 -0.304087
2009-06-08 07:44:39 51°13.663 2°55.963 19.5377 0.063098 0.351561 -0.304087
2009-06-08 07:44:44 51°13.664 2°55.963 19.538 0.063098 0.351561 -0.304087
2009-06-08 07:44:49 51°13.664 2°55.964 19.5391 0.063098 0.351561 -0.304087
2009-06-08 07:44:54 51°13.663 2°55.963 19.5401 0.063098 0.351567 -0.304087
2009-06-08 07:44:59 51°13.663 2°55.962 19.5417 0.063098 0.351573 -0.304087
2009-06-08 07:45:04 51°13.662 2°55.962 19.542 0.063098 0.351573 -0.304087
2009-06-08 07:45:09 51°13.662 2°55.962 19.5415 0.062995 0.350988 -0.304087
2009-06-08 07:45:14 51°13.662 2°55.962 19.5428 0.062995 0.350995 -0.304087
2009-06-08 07:45:19 51°13.662 2°55.962 19.5433 0.062995 0.350995 -0.304087
2009-06-08 07:45:24 51°13.662 2°55.962 19.5435 0.063098 0.351593 -0.304087
2009-06-08 07:45:29 51°13.662 2°55.962 19.5452 0.062996 0.351008 -0.304087
2009-06-08 07:45:34 51°13.662 2°55.961 19.5457 0.062996 0.351008 -0.304087
2009-06-08 07:45:39 51°13.662 2°55.962 19.548 0.062996 0.351014 -0.304087
2009-06-08 07:45:44 51°13.662 2°55.962 19.5535 0.063098 0.351612 -0.304087
2009-06-08 07:45:49 51°13.662 2°55.961 19.5543 0.063098 0.351612 -0.304087
2009-06-08 07:45:54 51°13.662 2°55.961 19.5706 0.062996 0.351027 -0.304087
2009-06-08 07:45:59 51°13.662 2°55.961 19.5698 0.062996 0.351027 -0.304087
2009-06-08 07:46:04 51°13.662 2°55.962 19.5688 0.062996 0.351033 -0.304087
2009-06-08 07:46:09 51°13.662 2°55.962 19.5701 0.062996 0.351039 -0.304087
2009-06-08 07:46:14 51°13.662 2°55.961 19.5681 0.062996 0.351046 -0.304087
2009-06-08 07:46:19 51°13.662 2°55.961 19.5668 0.062996 0.351046 -0.304087
2009-06-08 07:46:24 51°13.662 2°55.961 19.5662 0.062996 0.351046 -0.304087
2009-06-08 07:46:29 51°13.662 2°55.961 19.5648 0.062996 0.351052 -0.304087
2009-06-08 07:46:34 51°13.662 2°55.962 19.5662 0.062996 0.351052 -0.304087
2009-06-08 07:46:38 51°13.662 2°55.961 19.5665 0.062996 0.351065 -0.304087
2009-06-08 07:46:44 51°13.662 2°55.962 19.5663 0.062996 0.351065 -0.304087
2009-06-08 07:46:49 51°13.662 2°55.961 19.566 0.062996 0.351065 -0.304087
2009-06-08 07:46:53 51°13.662 2°55.961 19.5662 0.062996 0.351071 -0.304087
2009-06-08 07:46:58 51°13.662 2°55.961 19.5639 0.062996 0.351071 -0.304087
2009-06-08 07:47:03 51°13.664 2°55.964 19.5645 0.062996 0.351084 -0.304087
2009-06-08 07:47:08 51°13.665 2°55.965 19.5637 0.062996 0.351084 -0.304087
2009-06-08 07:47:13 51°13.663 2°55.963 19.564 0.062996 0.35109 -0.304087
2009-06-08 07:47:18 51°13.662 2°55.962 19.5653 0.062996 0.35109 -0.304087
2009-06-08 07:47:22 51°13.663 2°55.962 19.5672 0.062996 0.351097 -0.304087
2009-06-08 07:47:27 51°13.662 2°55.962 19.5672 0.062996 0.351097 -0.304087
2009-06-08 07:47:32 51°13.662 2°55.962 19.5672 0.062996 0.351103 -0.304087
2009-06-08 07:47:37 51°13.662 2°55.962 19.5674 0.062996 0.351109 -0.304087
2009-06-08 07:47:42 51°13.662 2°55.962 19.5687 0.062996 0.351116 -0.304087
2009-06-08 07:47:46 51°13.662 2°55.961 19.5686 0.062996 0.351116 -0.304087
2009-06-08 07:47:51 51°13.662 2°55.961 19.5694 0.062996 0.351116 -0.304087
2009-06-08 07:47:56 51°13.662 2°55.961 19.5702 0.062996 0.351122 -0.304087
2009-06-08 07:48:01 51°13.662 2°55.962 19.5696 0.062996 0.351129 -0.304087
2009-06-08 07:48:06 51°13.661 2°55.961 19.5705 0.062996 0.351129 -0.304087
2009-06-08 07:48:10 51°13.661 2°55.961 19.5704 0.062996 0.351135 -0.304087
2009-06-08 07:48:16 51°13.663 2°55.963 19.5709 0.062996 0.351135 -0.304087
2009-06-08 07:48:21 51°13.664 2°55.965 19.5713 0.062996 0.351141 -0.304087
2009-06-08 07:48:25 51°13.665 2°55.966 19.5721 0.062996 0.351148 -0.304087
2009-06-08 07:48:30 51°13.665 2°55.965 19.573 0.062996 0.351148 -0.304087
2009-06-08 07:48:35 51°13.663 2°55.963 19.5742 0.062996 0.351154 -0.304087
2009-06-08 07:48:41 51°13.662 2°55.961 19.5753 0.062996 0.35116 -0.304087
2009-06-08 07:48:45 51°13.661 2°55.961 19.5755 0.062996 0.35116 -0.304087
2009-06-08 07:48:50 51°13.662 2°55.961 19.576 0.062996 0.351167 -0.304087
2009-06-08 07:48:55 51°13.662 2°55.961 19.5777 0.062996 0.351173 -0.304087
2009-06-08 07:49:01 51°13.662 2°55.961 19.5791 0.062996 0.351173 -0.304087
2009-06-08 07:49:06 51°13.662 2°55.961 19.5802 0.062996 0.35118 -0.304087
2009-06-08 07:49:10 51°13.662 2°55.962 19.5807 0.062996 0.351186 -0.304087
2009-06-08 07:49:15 51°13.663 2°55.963 19.5799 0.062996 0.351186 -0.304087
2009-06-08 07:49:21 51°13.664 2°55.963 19.5811 0.062996 0.351186 -0.304087
2009-06-08 07:49:26 51°13.664 2°55.964 19.5821 0.062996 0.351192 -0.304087
2009-06-08 07:49:30 51°13.664 2°55.964 19.5832 0.062996 0.351199 -0.304087
2009-06-08 07:49:35 51°13.665 2°55.965 19.5852 0.062996 0.351205 -0.304087
2009-06-08 07:49:40 51°13.664 2°55.964 19.5855 0.062996 0.351205 -0.304087
2009-06-08 07:49:45 51°13.663 2°55.962 19.5864 0.062996 0.351205 -0.304087
2009-06-08 07:49:50 51°13.662 2°55.962 19.5882 0.062996 0.351211 -0.304087
2009-06-08 07:49:56 51°13.662 2°55.962 19.5895 0.062996 0.351218 -0.304087
2009-06-08 07:50:00 51°13.662 2°55.962 19.5908 0.062996 0.351224 -0.304087
2009-06-08 07:50:05 51°13.662 2°55.962 19.5922 0.062996 0.351224 -0.304087
2009-06-08 07:50:10 51°13.661 2°55.962 19.5932 0.062996 0.351231 -0.304087
2009-06-08 07:50:16 51°13.661 2°55.962 19.5947 0.062996 0.351231 -0.304087
2009-06-08 07:50:21 51°13.661 2°55.962 19.5943 0.062996 0.351231 -0.304087
2009-06-08 07:50:25 51°13.661 2°55.962 19.595 0.062996 0.351243 -0.304087
2009-06-08 07:50:30 51°13.661 2°55.962 19.5945 0.062996 0.351243 -0.304087
2009-06-08 07:50:36 51°13.661 2°55.962 19.5971 0.062996 0.35125 -0.304087
2009-06-08 07:50:41 51°13.661 2°55.962 19.5997 0.062996 0.351256 -0.304087
2009-06-08 07:50:45 51°13.661 2°55.962 19.6005 0.062996 0.351256 -0.304087
2009-06-08 07:50:50 51°13.661 2°55.962 19.602 0.062996 0.351256 -0.304087
2009-06-08 07:50:55 51°13.661 2°55.962 19.604 0.062996 0.351263 -0.304087
2009-06-08 07:51:01 51°13.661 2°55.962 19.6091 0.062996 0.351269 -0.304087
2009-06-08 07:51:05 51°13.661 2°55.962 19.6102 0.062996 0.351269 -0.304087
2009-06-08 07:51:10 51°13.66 2°55.962 19.6116 0.062996 0.351275 -0.304087
2009-06-08 07:51:15 51°13.659 2°55.961 19.6112 0.062996 0.351275 -0.304087
2009-06-08 07:51:21 51°13.659 2°55.961 19.6104 0.062996 0.351282 -0.304087
2009-06-08 07:51:26 51°13.66 2°55.962 19.6102 0.062996 0.351288 -0.304087
2009-06-08 07:51:30 51°13.661 2°55.963 19.6098 0.062996 0.351288 -0.304087
2009-06-08 07:51:35 51°13.662 2°55.963 19.6096 0.062996 0.351294 -0.304087
2009-06-08 07:51:40 51°13.662 2°55.963 19.6083 0.062996 0.351301 -0.304087
2009-06-08 07:51:46 51°13.662 2°55.963 19.6075 0.062996 0.351301 -0.304087
2009-06-08 07:51:50 51°13.661 2°55.962 19.6063 0.062996 0.351307 -0.304087
2009-06-08 07:51:56 51°13.661 2°55.962 19.6065 0.062996 0.351307 -0.304087
2009-06-08 07:52:00 51°13.66 2°55.961 19.6048 0.062996 0.351314 -0.304087
2009-06-08 07:52:05 51°13.66 2°55.962 19.6061 0.062996 0.35132 -0.304087
2009-06-08 07:52:10 51°13.66 2°55.962 19.6061 0.062996 0.351326 -0.304087
2009-06-08 07:52:16 51°13.66 2°55.962 19.6064 0.062996 0.351326 -0.304087
2009-06-08 07:52:20 51°13.66 2°55.962 19.6081 0.062996 0.351326 -0.304087
2009-06-08 07:52:26 51°13.66 2°55.962 19.6101 0.062996 0.351333 -0.304087
2009-06-08 07:52:30 51°13.661 2°55.962 19.6111 0.062996 0.351333 -0.304087
2009-06-08 07:52:36 51°13.661 2°55.963 19.6126 0.062996 0.351339 -0.304087
2009-06-08 07:52:41 51°13.66 2°55.962 19.6118 0.062996 0.351345 -0.304087
2009-06-08 07:52:45 51°13.66 2°55.962 19.6126 0.062996 0.351345 -0.304087
2009-06-08 07:52:50 51°13.659 2°55.962 19.6127 0.062996 0.351345 -0.304087
2009-06-08 07:52:56 51°13.659 2°55.962 19.613 0.062996 0.351352 -0.304087
2009-06-08 07:53:01 51°13.659 2°55.962 19.6126 0.062996 0.351358 -0.304087
2009-06-08 07:53:05 51°13.659 2°55.962 19.6128 0.062996 0.351365 -0.304087
2009-06-08 07:53:10 51°13.659 2°55.962 19.6133 0.062996 0.351371 -0.304087
2009-06-08 07:53:15 51°13.659 2°55.962 19.6138 0.062996 0.351371 -0.304087
2009-06-08 07:53:21 51°13.659 2°55.962 19.6142 0.062996 0.351371 -0.304087
2009-06-08 07:53:26 51°13.659 2°55.962 19.6137 0.062996 0.351377 -0.304087
2009-06-08 07:53:30 51°13.659 2°55.962 19.6139 0.062996 0.351384 -0.304087
2009-06-08 07:53:35 51°13.659 2°55.962 19.6143 0.062996 0.351384 -0.304087
2009-06-08 07:53:41 51°13.659 2°55.962 19.6157 0.062996 0.35139 -0.304087
2009-06-08 07:53:46 51°13.66 2°55.962 19.6159 0.062996 0.35139 -0.304087
2009-06-08 07:53:50 51°13.66 2°55.962 19.6165 0.062996 0.351397 -0.304087
2009-06-08 07:53:56 51°13.661 2°55.962 19.6178 0.062996 0.351403 -0.304087
2009-06-08 07:54:00 51°13.662 2°55.963 19.6182 0.062996 0.351403 -0.304087
2009-06-08 07:54:06 51°13.661 2°55.962 19.6195 0.062996 0.351409 -0.304087
2009-06-08 07:54:10 51°13.66 2°55.962 19.62 0.062996 0.351416 -0.304087
2009-06-08 07:54:16 51°13.66 2°55.962 19.6207 0.062996 0.351416 -0.304087
2009-06-08 07:54:21 51°13.66 2°55.962 19.6212 0.062996 0.351416 -0.304087
2009-06-08 07:54:25 51°13.66 2°55.962 19.6224 0.062996 0.351422 -0.338911
2009-06-08 07:54:30 51°13.66 2°55.962 19.6219 0.062996 0.351428 -0.304087
2009-06-08 07:54:35 51°13.66 2°55.962 19.6225 0.062996 0.351435 -0.304087
2009-06-08 07:54:41 51°13.66 2°55.961 19.6221 0.062996 0.351435 -0.304087
2009-06-08 07:54:46 51°13.66 2°55.961 19.6233 0.062996 0.351435 -0.304087
2009-06-08 07:54:50 51°13.66 2°55.962 19.6242 0.062996 0.351441 -0.304087
2009-06-08 07:54:56 51°13.661 2°55.962 19.6256 0.062996 0.351448 -0.304087
2009-06-08 07:55:01 51°13.661 2°55.961 19.6253 0.062996 0.351448 -0.304087
2009-06-08 07:55:06 51°13.661 2°55.961 19.6261 0.062996 0.351454 -0.304087
2009-06-08 07:55:10 51°13.661 2°55.961 19.6268 0.062996 0.35146 -0.304087
2009-06-08 07:55:16 51°13.66 2°55.961 19.6273 0.062996 0.35146 -0.304087
2009-06-08 07:55:21 51°13.661 2°55.961 19.6273 0.062996 0.35146 -0.304087
2009-06-08 07:55:26 51°13.66 2°55.961 19.6281 0.062996 0.351467 -0.304087
2009-06-08 07:55:30 51°13.66 2°55.961 19.6283 0.062996 0.351473 -0.304087
2009-06-08 07:55:35 51°13.66 2°55.961 19.6265 0.062996 0.351473 -0.304087
2009-06-08 07:55:41 51°13.66 2°55.961 19.626 0.062996 0.35148 -0.304087
2009-06-08 07:55:45 51°13.66 2°55.961 19.6272 0.062996 0.35148 -0.304087
2009-06-08 07:55:50 51°13.659 2°55.961 19.6281 0.062996 0.351486 -0.304087
2009-06-08 07:55:55 51°13.659 2°55.961 19.6292 0.062996 0.351486 -0.304087
2009-06-08 07:56:00 51°13.659 2°55.961 19.6295 0.062996 0.351492 -0.304087
2009-06-08 07:56:06 51°13.659 2°55.961 19.6297 0.062996 0.351499 -0.304087
2009-06-08 07:56:10 51°13.659 2°55.961 19.6295 0.062996 0.351505 -0.304087
2009-06-08 07:56:15 51°13.66 2°55.961 19.6293 0.062996 0.351505 -0.304087
2009-06-08 07:56:21 51°13.66 2°55.961 19.6299 0.062996 0.351505 -0.304087
2009-06-08 07:56:25 51°13.66 2°55.961 19.6304 0.062996 0.351512 -0.304087
2009-06-08 07:56:30 51°13.659 2°55.961 19.6322 0.062996 0.351518 -0.304087
2009-06-08 07:56:36 51°13.659 2°55.961 19.6332 0.062996 0.351518 -0.304087
2009-06-08 07:56:40 51°13.659 2°55.961 19.6348 0.062996 0.351524 -0.304087
2009-06-08 07:56:45 51°13.659 2°55.961 19.6364 0.062996 0.351524 -0.304087
2009-06-08 07:56:50 51°13.659 2°55.96 19.6377 0.062996 0.351531 -0.304087
2009-06-08 07:56:56 51°13.66 2°55.96 19.6382 0.062996 0.351537 -0.304087
2009-06-08 07:57:00 51°13.66 2°55.96 19.6392 0.062996 0.351537 -0.304087
2009-06-08 07:57:06 51°13.66 2°55.96 19.6389 0.062996 0.351544 -0.304087
2009-06-08 07:57:10 51°13.66 2°55.96 19.64 0.062996 0.351544 -0.304087
2009-06-08 07:57:16 51°13.66 2°55.96 19.6412 0.062996 0.351544 -0.304087
2009-06-08 07:57:21 51°13.66 2°55.96 19.6417 0.062996 0.35155 -0.304087
2009-06-08 07:57:26 51°13.66 2°55.96 19.6417 0.062996 0.351556 -0.338911
2009-06-08 07:57:30 51°13.66 2°55.96 19.6403 0.062996 0.351563 -0.304087
2009-06-08 07:57:36 51°13.659 2°55.96 19.644 0.062996 0.351563 -0.304087
2009-06-08 07:57:40 51°13.659 2°55.96 19.647 0.062996 0.351569 -0.304087
2009-06-08 07:57:45 51°13.659 2°55.96 19.6498 0.062996 0.351569 -0.304087
2009-06-08 07:57:50 51°13.659 2°55.96 19.6533 0.062996 0.351575 -0.304087
2009-06-08 07:57:56 51°13.658 2°55.959 19.6605 0.062996 0.351582 -0.304087
2009-06-08 07:58:01 51°13.658 2°55.959 19.6596 0.062996 0.351588 -0.304087
2009-06-08 07:58:06 51°13.658 2°55.959 19.661 0.062996 0.351588 -0.304087
2009-06-08 07:58:10 51°13.659 2°55.959 19.6497 0.062996 0.351595 -0.304087
2009-06-08 07:58:15 51°13.659 2°55.959 19.6484 0.062996 0.351595 -0.304087
2009-06-08 07:58:21 51°13.66 2°55.96 19.6472 0.062996 0.351595 -0.304087
2009-06-08 07:58:26 51°13.66 2°55.961 19.6489 0.062996 0.351601 -0.304087
2009-06-08 07:58:30 51°13.66 2°55.961 19.6471 0.062996 0.351607 -0.304087
2009-06-08 07:58:35 51°13.66 2°55.961 19.6512 0.062996 0.351614 -0.304087
2009-06-08 07:58:41 51°13.66 2°55.961 19.6528 0.062996 0.351614 -0.304087
2009-06-08 07:58:46 51°13.66 2°55.961 19.6576 0.062996 0.351614 -0.304087
2009-06-08 07:58:50 51°13.66 2°55.961 19.6611 0.062996 0.35162 -0.304087
2009-06-08 07:58:56 51°13.66 2°55.961 19.6603 0.062996 0.351627 -0.304087
2009-06-08 07:59:00 51°13.66 2°55.961 19.6611 0.062996 0.351627 -0.304087
2009-06-08 07:59:05 51°13.66 2°55.962 19.6632 0.062893 0.351041 -0.304087
2009-06-08 07:59:10 51°13.66 2°55.962 19.6683 0.062996 0.351639 -0.304087
2009-06-08 07:59:16 51°13.66 2°55.962 19.6748 0.062996 0.351639 -0.304087
2009-06-08 07:59:21 51°13.66 2°55.962 19.6766 0.062996 0.351639 -0.304087
2009-06-08 07:59:25 51°13.66 2°55.962 19.6786 0.062893 0.351053 -0.304087
2009-06-08 07:59:30 51°13.66 2°55.961 19.6786 0.062996 0.351652 -0.304087
2009-06-08 07:59:36 51°13.66 2°55.962 19.6791 0.062996 0.351659 -0.304087
2009-06-08 07:59:40 51°13.66 2°55.962 19.679 0.062893 0.351066 -0.304087
2009-06-08 07:59:46 51°13.66 2°55.962 19.6802 0.062893 0.351066 -0.304087
2009-06-08 07:59:50 51°13.659 2°55.962 19.6798 0.062996 0.351665 -0.304087
2009-06-08 07:59:55 51°13.659 2°55.962 19.6782 0.062996 0.351671 -0.304087
2009-06-08 08:00:01 51°13.659 2°55.962 19.677 0.062893 0.351079 -0.304087
2009-06-08 08:00:06 51°13.659 2°55.962 19.6765 0.062893 0.351085 -0.304087
2009-06-08 08:00:10 51°13.659 2°55.962 19.6774 0.062996 0.351678 -0.304087
2009-06-08 08:00:16 51°13.659 2°55.962 19.6754 0.062996 0.351678 -0.304087
2009-06-08 08:00:21 51°13.659 2°55.962 19.6746 0.062893 0.351092 -0.304087
2009-06-08 08:00:25 51°13.659 2°55.962 19.6741 0.062893 0.351098 -0.304087
2009-06-08 08:00:30 51°13.66 2°55.962 19.6741 0.062893 0.351098 -0.304087
2009-06-08 08:00:35 51°13.659 2°55.962 19.6741 0.062996 0.351697 -0.304087
2009-06-08 08:00:41 51°13.659 2°55.962 19.6719 0.062893 0.351111 -0.304087
2009-06-08 08:00:46 51°13.659 2°55.962 19.6538 0.062893 0.351111 -0.304087
2009-06-08 08:00:50 51°13.659 2°55.962 19.6261 0.062893 0.351117 -0.304087
2009-06-08 08:00:55 51°13.659 2°55.961 19.6459 0.062893 0.351117 -0.304087
2009-06-08 08:01:01 51°13.66 2°55.96 19.6631 0.062893 0.351124 -0.304087
2009-06-08 08:01:05 51°13.66 2°55.958 19.6266 0.062893 0.35113 -0.304087
2009-06-08 08:01:10 51°13.661 2°55.956 19.6779 0.062893 0.35113 -0.304087
2009-06-08 08:01:16 51°13.662 2°55.952 19.6493 0.062893 0.35113 -0.304087
2009-06-08 08:01:21 51°13.663 2°55.948 19.6607 0.062893 0.351136 -0.304087
2009-06-08 08:01:26 51°13.665 2°55.944 19.6763 0.062893 0.351143 -0.304087
2009-06-08 08:01:32 51°13.666 2°55.939 19.689 0.062893 0.351143 -0.304087
2009-06-08 08:01:38 51°13.668 2°55.934 19.6832 0.062893 0.351149 -0.304087
2009-06-08 08:01:44 51°13.67 2°55.928 19.6755 0.062893 0.351156 -0.304087
2009-06-08 08:01:49 51°13.672 2°55.923 19.6857 0.062893 0.351156 -0.304087
2009-06-08 08:01:54 51°13.673 2°55.918 19.6868 0.062893 0.351156 -0.304087
2009-06-08 08:01:59 51°13.675 2°55.912 19.6852 0.062893 0.351162 -0.304087
2009-06-08 08:02:04 51°13.677 2°55.906 19.6785 0.062893 0.351168 -0.304087
2009-06-08 08:02:09 51°13.678 2°55.9 19.675 0.062893 0.351175 -0.304087
2009-06-08 08:02:14 51°13.68 2°55.893 19.6747 0.062893 0.351175 -0.338911
2009-06-08 08:02:19 51°13.682 2°55.886 19.6834 0.062893 0.351175 -0.338911
2009-06-08 08:02:24 51°13.683 2°55.878 19.6888 0.062893 0.351181 -0.304087
2009-06-08 08:02:29 51°13.684 2°55.87 19.6888 0.062893 0.351188 -0.304087
2009-06-08 08:02:34 51°13.686 2°55.862 19.6961 0.062893 0.351194 -0.304087
2009-06-08 08:02:39 51°13.687 2°55.854 19.7023 0.062893 0.3512 -0.304087
2009-06-08 08:02:44 51°13.689 2°55.847 19.7039 0.062893 0.351207 -0.304087
2009-06-08 08:02:49 51°13.69 2°55.839 19.703 0.062893 0.351207 -0.304087
2009-06-08 08:02:54 51°13.691 2°55.832 19.7027 0.062893 0.351207 -0.304087
2009-06-08 08:02:59 51°13.692 2°55.825 19.7021 0.062893 0.351213 -0.304087
2009-06-08 08:03:04 51°13.693 2°55.818 19.7033 0.062893 0.351219 -0.304087
2009-06-08 08:03:09 51°13.694 2°55.811 19.7039 0.062893 0.351226 -0.304087
2009-06-08 08:03:14 51°13.694 2°55.804 19.7036 0.062893 0.351232 -0.304087
2009-06-08 08:03:19 51°13.695 2°55.797 19.7009 0.062893 0.351232 -0.304087
2009-06-08 08:03:24 51°13.696 2°55.791 19.7021 0.062893 0.351232 -0.304087
2009-06-08 08:03:29 51°13.696 2°55.785 19.7004 0.062893 0.351232 -0.304087
2009-06-08 08:03:34 51°13.697 2°55.779 19.7018 0.062893 0.351239 -0.304087
2009-06-08 08:03:39 51°13.697 2°55.773 19.7003 0.062893 0.351239 -0.304087
2009-06-08 08:03:44 51°13.697 2°55.768 19.7024 0.062893 0.351239 -0.304087
2009-06-08 08:03:49 51°13.698 2°55.763 19.7024 0.062893 0.351239 -0.304087
2009-06-08 08:03:54 51°13.698 2°55.758 19.7014 0.062893 0.351245 -0.304087
2009-06-08 08:03:58 51°13.698 2°55.755 19.7019 0.062893 0.351245 -0.304087
2009-06-08 08:04:03 51°13.698 2°55.751 19.7026 0.062893 0.351251 -0.304087
2009-06-08 08:04:08 51°13.698 2°55.749 19.7038 0.062893 0.351258 -0.304087
2009-06-08 08:04:13 51°13.698 2°55.746 19.7045 0.062893 0.351258 -0.338911
2009-06-08 08:04:18 51°13.698 2°55.745 19.7047 0.062893 0.351258 -0.338911
2009-06-08 08:04:22 51°13.698 2°55.744 19.7061 0.062893 0.351264 -0.304087
2009-06-08 08:04:27 51°13.698 2°55.743 19.7062 0.062893 0.351271 -0.304087
2009-06-08 08:04:32 51°13.698 2°55.742 19.7067 0.062893 0.351277 -0.304087
2009-06-08 08:04:37 51°13.699 2°55.742 19.7073 0.062893 0.351277 -0.338911
2009-06-08 08:04:42 51°13.7 2°55.742 19.708 0.062893 0.351283 -0.304087
2009-06-08 08:04:47 51°13.701 2°55.742 19.7085 0.062893 0.351283 -0.304087
2009-06-08 08:04:51 51°13.701 2°55.742 19.7099 0.062893 0.35129 -0.304087
2009-06-08 08:04:56 51°13.702 2°55.743 19.7106 0.062893 0.35129 -0.304087
2009-06-08 08:05:01 51°13.703 2°55.743 19.7122 0.062893 0.351296 -0.304087
2009-06-08 08:05:06 51°13.704 2°55.744 19.7111 0.062893 0.351303 -0.338911
2009-06-08 08:05:11 51°13.706 2°55.745 19.7073 0.062893 0.351309 -0.304087
2009-06-08 08:05:16 51°13.707 2°55.746 19.7046 0.062893 0.351309 -0.304087
2009-06-08 08:05:20 51°13.708 2°55.746 19.7048 0.062893 0.351309 -0.304087
2009-06-08 08:05:26 51°13.709 2°55.746 19.7064 0.062893 0.351315 -0.304087
2009-06-08 08:05:30 51°13.709 2°55.746 19.7073 0.062893 0.351315 -0.304087
2009-06-08 08:05:36 51°13.71 2°55.746 19.6916 0.062893 0.351315 -0.304087
2009-06-08 08:05:40 51°13.71 2°55.746 19.6742 0.062893 0.351322 -0.304087
2009-06-08 08:05:46 51°13.709 2°55.745 19.6856 0.062893 0.351322 -0.304087
2009-06-08 08:05:50 51°13.708 2°55.745 19.7103 0.062893 0.351322 -0.304087
2009-06-08 08:05:56 51°13.707 2°55.744 19.7109 0.062893 0.351322 -0.304087
2009-06-08 08:06:00 51°13.706 2°55.744 19.7324 0.062893 0.351322 -0.338911
2009-06-08 08:06:06 51°13.704 2°55.743 19.7231 0.062893 0.351328 -0.304087
2009-06-08 08:06:10 51°13.703 2°55.743 19.7306 0.062893 0.351328 -0.338911
2009-06-08 08:06:16 51°13.702 2°55.742 19.7288 0.062893 0.351328 -0.338911
2009-06-08 08:06:21 51°13.701 2°55.742 19.7251 0.062893 0.351335 -0.304087
2009-06-08 08:06:26 51°13.701 2°55.742 19.7266 0.062893 0.351335 -0.304087
2009-06-08 08:06:30 51°13.701 2°55.741 19.7333 0.062893 0.351335 -0.304087
2009-06-08 08:06:36 51°13.701 2°55.741 19.7355 0.062893 0.351347 -0.304087
2009-06-08 08:06:41 51°13.702 2°55.74 19.735 0.062893 0.351347 -0.338911
2009-06-08 08:06:46 51°13.703 2°55.739 19.7366 0.062893 0.351347 -0.338911
2009-06-08 08:06:50 51°13.704 2°55.738 19.7673 0.062893 0.351354 -0.338911
2009-06-08 08:06:55 51°13.706 2°55.737 19.7701 0.062893 0.351354 -0.304087
2009-06-08 08:07:01 51°13.709 2°55.734 19.7704 0.062893 0.35136 -0.304087
2009-06-08 08:07:06 51°13.713 2°55.731 19.7701 0.062893 0.351418 -0.304087
2009-06-08 08:07:10 51°13.716 2°55.728 19.7646 0.062893 0.351501 -0.304087
2009-06-08 08:07:15 51°13.722 2°55.723 19.7606 0.062893 0.351501 -0.304087
2009-06-08 08:07:20 51°13.728 2°55.718 19.7262 0.062893 0.351559 -0.304087
2009-06-08 08:07:26 51°13.736 2°55.711 19.7269 0.062893 0.351578 -0.304087
2009-06-08 08:07:30 51°13.741 2°55.707 19.7332 0.062893 0.351565 -0.304087
2009-06-08 08:07:36 51°13.75 2°55.699 19.7389 0.062893 0.351533 -0.304087
2009-06-08 08:07:40 51°13.756 2°55.693 19.7364 0.062893 0.351488 -0.304087
2009-06-08 08:07:46 51°13.765 2°55.684 19.7313 0.062893 0.351488 -0.304087
2009-06-08 08:07:50 51°13.771 2°55.677 19.7083 0.062893 0.351431 -0.304087
2009-06-08 08:07:56 51°13.781 2°55.668 19.7137 0.062893 0.351379 -0.304087
2009-06-08 08:08:00 51°13.788 2°55.662 19.712 0.062893 0.351341 -0.304087
2009-06-08 08:08:06 51°13.799 2°55.653 19.7122 0.062893 0.351315 -0.304087
2009-06-08 08:08:10 51°13.806 2°55.647 19.6943 0.062893 0.351303 -0.304087
2009-06-08 08:08:16 51°13.817 2°55.638 19.7036 0.062893 0.351303 -0.304087
2009-06-08 08:08:21 51°13.827 2°55.631 19.7164 0.062893 0.351315 -0.304087
2009-06-08 08:08:25 51°13.835 2°55.626 19.7327 0.062893 0.351341 -0.304087
2009-06-08 08:08:30 51°13.844 2°55.619 19.7225 0.062893 0.351373 -0.304087
2009-06-08 08:08:36 51°13.856 2°55.61 19.7242 0.062893 0.351405 -0.304087
2009-06-08 08:08:41 51°13.866 2°55.603 19.728 0.062893 0.351443 -0.338911
2009-06-08 08:08:45 51°13.874 2°55.597 19.744 0.062893 0.351443 -0.338911
2009-06-08 08:08:50 51°13.884 2°55.589 19.7249 0.062893 0.351475 -0.304087
2009-06-08 08:08:56 51°13.896 2°55.58 19.715 0.062893 0.351488 -0.304087
2009-06-08 08:09:01 51°13.907 2°55.572 19.6899 0.062893 0.351495 -0.304087
2009-06-08 08:09:06 51°13.917 2°55.564 19.6962 0.062893 0.351495 -0.338911
2009-06-08 08:09:10 51°13.925 2°55.558 19.7355 0.062893 0.351488 -0.304087
2009-06-08 08:09:15 51°13.935 2°55.551 19.7621 0.062893 0.351488 -0.304087
2009-06-08 08:09:21 51°13.948 2°55.542 19.7558 0.062893 0.351482 -0.304087
2009-06-08 08:09:25 51°13.956 2°55.536 19.7326 0.062893 0.351475 -0.304087
2009-06-08 08:09:30 51°13.967 2°55.529 19.7413 0.062893 0.351469 -0.304087
2009-06-08 08:09:35 51°13.977 2°55.521 19.7348 0.062893 0.351463 -0.304087
2009-06-08 08:09:41 51°13.989 2°55.512 19.7308 0.062893 0.351463 -0.304087
2009-06-08 08:09:46 51°14 2°55.504 19.7436 0.062893 0.351463 -0.304087
2009-06-08 08:09:50 51°14.008 2°55.499 19.7275 0.062893 0.351463 -0.304087
2009-06-08 08:09:55 51°14.019 2°55.491 19.7344 0.062893 0.351469 -0.304087
2009-06-08 08:10:01 51°14.031 2°55.482 19.7549 0.062893 0.351482 -0.304087
2009-06-08 08:10:05 51°14.04 2°55.476 19.7591 0.062893 0.351495 -0.338911
2009-06-08 08:10:10 51°14.05 2°55.469 19.7359 0.062893 0.351507 -0.304087
2009-06-08 08:10:16 51°14.062 2°55.459 19.7203 0.062893 0.351507 -0.304087
2009-06-08 08:10:20 51°14.071 2°55.454 19.7677 0.062893 0.351514 -0.304087
2009-06-08 08:10:25 51°14.081 2°55.446 19.7587 0.062893 0.35152 -0.304087
2009-06-08 08:10:30 51°14.092 2°55.439 19.7549 0.062893 0.351527 -0.304087
2009-06-08 08:10:36 51°14.105 2°55.43 19.7554 0.062893 0.351533 -0.304087
2009-06-08 08:10:41 51°14.115 2°55.422 19.7453 0.062893 0.351533 -0.304087
2009-06-08 08:10:46 51°14.126 2°55.415 19.7749 0.062893 0.351533 -0.304087
2009-06-08 08:10:50 51°14.134 2°55.409 19.7471 0.062893 0.351533 -0.304087
2009-06-08 08:10:56 51°14.147 2°55.399 19.7809 0.062893 0.351533 -0.304087
2009-06-08 08:11:01 51°14.158 2°55.392 19.7888 0.062893 0.351539 -0.304087
2009-06-08 08:11:06 51°14.168 2°55.383 19.7921 0.062893 0.351546 -0.304087
2009-06-08 08:11:10 51°14.176 2°55.376 19.796 0.062893 0.351552 -0.304087
2009-06-08 08:11:16 51°14.189 2°55.364 19.7886 0.062893 0.351552 -0.304087
2009-06-08 08:11:21 51°14.199 2°55.354 19.7946 0.062893 0.351552 -0.304087
2009-06-08 08:11:26 51°14.208 2°55.343 19.735 0.062893 0.351559 -0.304087
2009-06-08 08:11:30 51°14.216 2°55.334 19.7828 0.062893 0.351565 -0.304087
2009-06-08 08:11:35 51°14.225 2°55.322 19.7647 0.062893 0.351571 -0.304087
2009-06-08 08:11:41 51°14.236 2°55.307 19.7968 0.062893 0.351571 -0.304087
2009-06-08 08:11:45 51°14.244 2°55.297 19.78 0.062893 0.351571 -0.304087
2009-06-08 08:11:50 51°14.253 2°55.284 19.7837 0.062893 0.351571 -0.304087
2009-06-08 08:11:55 51°14.263 2°55.271 19.7813 0.062893 0.351578 -0.304087
2009-06-08 08:12:00 51°14.273 2°55.258 19.7837 0.062893 0.351584 -0.338911
2009-06-08 08:12:06 51°14.284 2°55.241 19.7712 0.062893 0.351591 -0.304087
2009-06-08 08:12:10 51°14.292 2°55.23 19.8029 0.062893 0.351597 -0.304087
2009-06-08 08:12:16 51°14.303 2°55.213 19.7799 0.062893 0.351597 -0.304087
2009-06-08 08:12:20 51°14.311 2°55.201 19.7847 0.062893 0.351604 -0.304087
2009-06-08 08:12:25 51°14.32 2°55.186 19.7403 0.062893 0.35161 -0.304087
2009-06-08 08:12:30 51°14.329 2°55.17 19.7725 0.062893 0.351604 -0.304087
2009-06-08 08:12:36 51°14.34 2°55.152 19.7631 0.062893 0.35161 -0.304087
2009-06-08 08:12:41 51°14.349 2°55.136 19.7957 0.062893 0.351616 -0.304087
2009-06-08 08:12:45 51°14.357 2°55.123 19.7844 0.062893 0.351616 -0.304087
2009-06-08 08:12:50 51°14.365 2°55.106 19.7815 0.062893 0.351623 -0.304087
2009-06-08 08:12:56 51°14.375 2°55.084 19.7678 0.062893 0.351623 -0.304087
2009-06-08 08:13:01 51°14.383 2°55.066 19.7953 0.062893 0.351629 -0.304087
2009-06-08 08:13:05 51°14.389 2°55.051 19.7926 0.062893 0.351636 -0.304087
2009-06-08 08:13:10 51°14.397 2°55.032 19.7917 0.062893 0.351636 -0.304087
2009-06-08 08:13:16 51°14.406 2°55.009 19.789 0.062893 0.351636 -0.304087
2009-06-08 08:13:21 51°14.414 2°54.989 19.7491 0.062893 0.351636 -0.304087
2009-06-08 08:13:25 51°14.419 2°54.974 19.7853 0.062893 0.351642 -0.304087
2009-06-08 08:13:30 51°14.427 2°54.954 19.7811 0.062893 0.351648 -0.304087
2009-06-08 08:13:36 51°14.437 2°54.93 19.7844 0.062893 0.351655 -0.304087
2009-06-08 08:13:41 51°14.445 2°54.91 19.7771 0.062893 0.351661 -0.338911
2009-06-08 08:13:46 51°14.453 2°54.889 19.7658 0.062893 0.351661 -0.338911
2009-06-08 08:13:50 51°14.459 2°54.873 19.7856 0.062893 0.351668 -0.304087
2009-06-08 08:13:55 51°14.467 2°54.852 19.7738 0.062893 0.351661 -0.304087
2009-06-08 08:14:01 51°14.478 2°54.827 19.7861 0.062893 0.351674 -0.338911
2009-06-08 08:14:06 51°14.487 2°54.807 19.7937 0.062893 0.351674 -0.304087
2009-06-08 08:14:10 51°14.495 2°54.79 19.7572 0.062893 0.35168 -0.304087
2009-06-08 08:14:16 51°14.506 2°54.765 19.7796 0.062893 0.35168 -0.304087
2009-06-08 08:14:21 51°14.516 2°54.745 19.7869 0.062893 0.35168 -0.304087
2009-06-08 08:14:26 51°14.526 2°54.725 19.7642 0.062893 0.351687 -0.304087
2009-06-08 08:14:30 51°14.534 2°54.709 19.7758 0.062893 0.35168 -0.304087
2009-06-08 08:14:35 51°14.545 2°54.69 19.7454 0.062893 0.351668 -0.304087
2009-06-08 08:14:41 51°14.558 2°54.667 19.7807 0.062893 0.351655 -0.304087
2009-06-08 08:14:46 51°14.57 2°54.649 19.7486 0.062893 0.351655 -0.304087
2009-06-08 08:14:50 51°14.579 2°54.635 19.7728 0.062893 0.351648 -0.304087
2009-06-08 08:14:56 51°14.594 2°54.616 19.7512 0.062893 0.351668 -0.304087
2009-06-08 08:15:01 51°14.606 2°54.6 19.7762 0.062893 0.351674 -0.304087
2009-06-08 08:15:05 51°14.617 2°54.588 19.7563 0.062893 0.351713 -0.338911
2009-06-08 08:15:10 51°14.63 2°54.573 19.7796 0.062893 0.351738 -0.304087
2009-06-08 08:15:16 51°14.645 2°54.557 19.7746 0.062893 0.351738 -0.304087
2009-06-08 08:15:21 51°14.658 2°54.543 19.7716 0.062893 0.35177 -0.304087
2009-06-08 08:15:25 51°14.669 2°54.532 19.7864 0.062893 0.35179 -0.338911
2009-06-08 08:15:30 51°14.683 2°54.519 19.7567 0.062893 0.351802 -0.304087
2009-06-08 08:15:36 51°14.699 2°54.504 19.7936 0.062893 0.351802 -0.304087
2009-06-08 08:15:41 51°14.713 2°54.491 19.7968 0.062893 0.351802 -0.304087
2009-06-08 08:15:45 51°14.724 2°54.481 19.7709 0.062893 0.351802 -0.304087
2009-06-08 08:15:50 51°14.737 2°54.468 19.7915 0.062893 0.35179 -0.304087
2009-06-08 08:15:56 51°14.754 2°54.453 19.7607 0.062893 0.351783 -0.304087
2009-06-08 08:16:01 51°14.767 2°54.44 19.7845 0.062893 0.35177 -0.304087
2009-06-08 08:16:06 51°14.781 2°54.427 19.796 0.062893 0.351764 -0.338911
2009-06-08 08:16:10 51°14.792 2°54.416 19.7851 0.062893 0.351751 -0.304087
2009-06-08 08:16:15 51°14.805 2°54.403 19.7871 0.062893 0.351751 -0.304087
2009-06-08 08:16:21 51°14.822 2°54.387 19.7933 0.062893 0.351745 -0.304087
2009-06-08 08:16:26 51°14.835 2°54.375 19.8022 0.062893 0.351751 -0.304087
2009-06-08 08:16:30 51°14.846 2°54.364 19.7734 0.06279 0.35117 -0.304087
2009-06-08 08:16:36 51°14.862 2°54.348 19.8053 0.06279 0.351177 -0.304087
2009-06-08 08:16:41 51°14.875 2°54.335 19.7877 0.062893 0.351783 -0.304087
2009-06-08 08:16:46 51°14.889 2°54.321 19.7875 0.062893 0.351783 -0.304087
2009-06-08 08:16:50 51°14.899 2°54.31 19.8157 0.062893 0.351802 -0.304087
2009-06-08 08:16:55 51°14.912 2°54.297 19.7798 0.062893 0.351809 -0.304087
2009-06-08 08:17:01 51°14.927 2°54.279 19.7958 0.06279 0.351221 -0.304087
2009-06-08 08:17:06 51°14.94 2°54.265 19.8084 0.062893 0.351815 -0.304087
2009-06-08 08:17:10 51°14.95 2°54.254 19.7984 0.06279 0.351234 -0.304087
2009-06-08 08:17:16 51°14.966 2°54.237 19.8061 0.06279 0.351234 -0.304087
2009-06-08 08:17:21 51°14.978 2°54.222 19.7986 0.06279 0.351234 -0.304087
2009-06-08 08:17:25 51°14.988 2°54.211 19.7817 0.06279 0.351234 -0.304087
2009-06-08 08:17:30 51°15.001 2°54.197 19.8006 0.06279 0.351234 -0.304087
2009-06-08 08:17:36 51°15.016 2°54.179 19.7962 0.06279 0.351241 -0.304087
2009-06-08 08:17:41 51°15.029 2°54.165 19.7961 0.06279 0.351241 -0.304087
2009-06-08 08:17:46 51°15.042 2°54.15 19.8009 0.06279 0.351241 -0.304087
2009-06-08 08:17:50 51°15.052 2°54.139 19.799 0.06279 0.351241 -0.338911
2009-06-08 08:17:56 51°15.067 2°54.122 19.8071 0.06279 0.351247 -0.304087
2009-06-08 08:18:01 51°15.08 2°54.107 19.8106 0.06279 0.351253 -0.304087
2009-06-08 08:18:06 51°15.093 2°54.093 19.8021 0.06279 0.35126 -0.304087
2009-06-08 08:18:10 51°15.103 2°54.081 19.8097 0.06279 0.35126 -0.304087
2009-06-08 08:18:16 51°15.118 2°54.064 19.7858 0.06279 0.35126 -0.304087
2009-06-08 08:18:21 51°15.131 2°54.05 19.7905 0.06279 0.351266 -0.304087
2009-06-08 08:18:25 51°15.141 2°54.038 19.8105 0.06279 0.351273 -0.304087
2009-06-08 08:18:30 51°15.153 2°54.024 19.7992 0.06279 0.351279 -0.304087
2009-06-08 08:18:35 51°15.166 2°54.01 19.797 0.06279 0.351279 -0.338911
2009-06-08 08:18:41 51°15.181 2°53.993 19.7854 0.06279 0.351285 -0.304087
2009-06-08 08:18:46 51°15.194 2°53.978 19.8029 0.06279 0.351285 -0.304087
2009-06-08 08:18:50 51°15.205 2°53.967 19.8063 0.06279 0.351292 -0.338911
2009-06-08 08:18:55 51°15.218 2°53.952 19.7959 0.06279 0.351298 -0.304087
2009-06-08 08:19:01 51°15.233 2°53.936 19.785 0.06279 0.351305 -0.304087
2009-06-08 08:19:06 51°15.246 2°53.921 19.8115 0.06279 0.351305 -0.304087
2009-06-08 08:19:10 51°15.256 2°53.91 19.8014 0.06279 0.351305 -0.304087
2009-06-08 08:19:16 51°15.272 2°53.893 19.8118 0.06279 0.351305 -0.304087
2009-06-08 08:19:20 51°15.282 2°53.883 19.8016 0.06279 0.351318 -0.304087
2009-06-08 08:19:25 51°15.295 2°53.869 19.8179 0.06279 0.351318 -0.304087
2009-06-08 08:19:30 51°15.309 2°53.856 19.8038 0.06279 0.351324 -0.338911
2009-06-08 08:19:36 51°15.324 2°53.839 19.8002 0.06279 0.35133 -0.338911
2009-06-08 08:19:41 51°15.338 2°53.826 19.8104 0.06279 0.351337 -0.304087
2009-06-08 08:19:45 51°15.348 2°53.815 19.8138 0.06279 0.351337 -0.304087
2009-06-08 08:19:50 51°15.362 2°53.802 19.8105 0.06279 0.351337 -0.304087
2009-06-08 08:19:56 51°15.378 2°53.786 19.8003 0.06279 0.351337 -0.304087
2009-06-08 08:20:01 51°15.391 2°53.773 19.8191 0.06279 0.35135 -0.304087
2009-06-08 08:20:06 51°15.404 2°53.76 19.7901 0.06279 0.351356 -0.338911
2009-06-08 08:20:10 51°15.415 2°53.749 19.8177 0.06279 0.351356 -0.304087
2009-06-08 08:20:16 51°15.431 2°53.733 19.7956 0.06279 0.351356 -0.304087
2009-06-08 08:20:21 51°15.445 2°53.72 19.8056 0.06279 0.351369 -0.338911
2009-06-08 08:20:26 51°15.458 2°53.707 19.8151 0.06279 0.351369 -0.304087
2009-06-08 08:20:30 51°15.469 2°53.696 19.8028 0.06279 0.351369 -0.304087
2009-06-08 08:20:36 51°15.485 2°53.68 19.8143 0.06279 0.351375 -0.304087
2009-06-08 08:20:41 51°15.498 2°53.667 19.8209 0.06279 0.351382 -0.304087
2009-06-08 08:20:45 51°15.509 2°53.656 19.8094 0.06279 0.351382 -0.304087
2009-06-08 08:20:50 51°15.522 2°53.643 19.8209 0.06279 0.351382 -0.304087
2009-06-08 08:20:55 51°15.536 2°53.629 19.8134 0.06279 0.351394 -0.304087
2009-06-08 08:21:01 51°15.552 2°53.614 19.8247 0.06279 0.351394 -0.304087
2009-06-08 08:21:06 51°15.566 2°53.601 19.8229 0.06279 0.351401 -0.304087
2009-06-08 08:21:10 51°15.577 2°53.591 19.8312 0.06279 0.351407 -0.304087
2009-06-08 08:21:16 51°15.593 2°53.576 19.803 0.06279 0.351407 -0.304087
2009-06-08 08:21:20 51°15.604 2°53.566 19.8141 0.06279 0.35142 -0.338911
2009-06-08 08:21:25 51°15.618 2°53.553 19.8279 0.06279 0.35142 -0.338911
2009-06-08 08:21:30 51°15.632 2°53.539 19.8143 0.06279 0.351427 -0.304087
2009-06-08 08:21:35 51°15.645 2°53.526 19.823 0.06279 0.351427 -0.304087
2009-06-08 08:21:41 51°15.662 2°53.511 19.8291 0.06279 0.351433 -0.304087
2009-06-08 08:21:46 51°15.675 2°53.498 19.8099 0.06279 0.351433 -0.304087
2009-06-08 08:21:50 51°15.686 2°53.488 19.8217 0.06279 0.351439 -0.338911
2009-06-08 08:21:56 51°15.703 2°53.472 19.8235 0.06279 0.351446 -0.338911
2009-06-08 08:22:01 51°15.717 2°53.459 19.8141 0.06279 0.351446 -0.304087
2009-06-08 08:22:05 51°15.728 2°53.449 19.8205 0.06279 0.351452 -0.304087
2009-06-08 08:22:10 51°15.742 2°53.437 19.8103 0.06279 0.351459 -0.304087
2009-06-08 08:22:16 51°15.758 2°53.421 19.8187 0.06279 0.351459 -0.304087
2009-06-08 08:22:21 51°15.771 2°53.407 19.833 0.06279 0.351465 -0.304087
2009-06-08 08:22:26 51°15.785 2°53.394 19.8387 0.06279 0.351471 -0.304087
2009-06-08 08:22:30 51°15.796 2°53.383 19.8201 0.06279 0.351478 -0.304087
2009-06-08 08:22:36 51°15.812 2°53.367 19.828 0.06279 0.351478 -0.304087
2009-06-08 08:22:41 51°15.826 2°53.354 19.8371 0.06279 0.351484 -0.338911
2009-06-08 08:22:46 51°15.839 2°53.341 19.8184 0.06279 0.351484 -0.338911
2009-06-08 08:22:50 51°15.85 2°53.33 19.8378 0.06279 0.351491 -0.304087
2009-06-08 08:22:56 51°15.866 2°53.314 19.8223 0.06279 0.351497 -0.304087
2009-06-08 08:23:01 51°15.88 2°53.301 19.8313 0.06279 0.351497 -0.338911
2009-06-08 08:23:05 51°15.891 2°53.29 19.8327 0.06279 0.351504 -0.304087
2009-06-08 08:23:10 51°15.904 2°53.277 19.8147 0.06279 0.35151 -0.304087
2009-06-08 08:23:15 51°15.918 2°53.263 19.8172 0.06279 0.35151 -0.304087
2009-06-08 08:23:21 51°15.934 2°53.247 19.8333 0.06279 0.35151 -0.304087
2009-06-08 08:23:26 51°15.948 2°53.234 19.8362 0.06279 0.351516 -0.338911
2009-06-08 08:23:30 51°15.959 2°53.224 19.822 0.06279 0.351523 -0.304087
2009-06-08 08:23:35 51°15.973 2°53.21 19.8318 0.06279 0.351523 -0.304087
2009-06-08 08:23:40 51°15.986 2°53.197 19.8166 0.06279 0.351536 -0.338911
2009-06-08 08:23:46 51°16.003 2°53.181 19.8322 0.06279 0.351536 -0.338911
2009-06-08 08:23:50 51°16.014 2°53.17 19.83 0.06279 0.351542 -0.304087
2009-06-08 08:23:56 51°16.03 2°53.154 19.8312 0.06279 0.351542 -0.304087
2009-06-08 08:24:01 51°16.044 2°53.14 19.8421 0.06279 0.351549 -0.304087
2009-06-08 08:24:05 51°16.054 2°53.129 19.8403 0.06279 0.351555 -0.338911
2009-06-08 08:24:10 51°16.068 2°53.115 19.8219 0.06279 0.351561 -0.304087
2009-06-08 08:24:16 51°16.084 2°53.099 19.8273 0.06279 0.351561 -0.304087
2009-06-08 08:24:21 51°16.098 2°53.085 19.8382 0.06279 0.351561 -0.304087
2009-06-08 08:24:25 51°16.108 2°53.075 19.8265 0.06279 0.351568 -0.304087
2009-06-08 08:24:30 51°16.122 2°53.061 19.8417 0.06279 0.351568 -0.304087
2009-06-08 08:24:36 51°16.139 2°53.047 19.8328 0.06279 0.351581 -0.304087
2009-06-08 08:24:41 51°16.152 2°53.034 19.8358 0.06279 0.351581 -0.304087
2009-06-08 08:24:45 51°16.164 2°53.025 19.8333 0.06279 0.351581 -0.304087
2009-06-08 08:24:50 51°16.178 2°53.014 19.8398 0.06279 0.351587 -0.304087
2009-06-08 08:24:56 51°16.195 2°53 19.8395 0.06279 0.351593 -0.338911
2009-06-08 08:25:01 51°16.209 2°52.988 19.8318 0.06279 0.3516 -0.338911
2009-06-08 08:25:06 51°16.223 2°52.977 19.8444 0.06279 0.3516 -0.304087
2009-06-08 08:25:10 51°16.235 2°52.968 19.8412 0.06279 0.351606 -0.304087
2009-06-08 08:25:16 51°16.252 2°52.956 19.8476 0.06279 0.351606 -0.304087
2009-06-08 08:25:21 51°16.266 2°52.946 19.8333 0.06279 0.351613 -0.338911
2009-06-08 08:25:25 51°16.278 2°52.938 19.8424 0.06279 0.351619 -0.304087
2009-06-08 08:25:30 51°16.292 2°52.927 19.8499 0.06279 0.351613 -0.338911
2009-06-08 08:25:35 51°16.307 2°52.918 19.829 0.06279 0.351626 -0.304087
2009-06-08 08:25:41 51°16.324 2°52.906 19.8534 0.06279 0.351632 -0.338911
2009-06-08 08:25:46 51°16.338 2°52.897 19.8417 0.06279 0.351632 -0.338911
2009-06-08 08:25:50 51°16.35 2°52.889 19.8509 0.06279 0.351638 -0.304087
2009-06-08 08:25:56 51°16.367 2°52.878 19.8305 0.06279 0.351645 -0.304087
2009-06-08 08:26:00 51°16.379 2°52.87 19.852 0.06279 0.351651 -0.304087
2009-06-08 08:26:05 51°16.393 2°52.862 19.8346 0.06279 0.351651 -0.304087
2009-06-08 08:26:10 51°16.408 2°52.852 19.8512 0.06279 0.351658 -0.338911
2009-06-08 08:26:16 51°16.425 2°52.842 19.8351 0.06279 0.351658 -0.338911
2009-06-08 08:26:21 51°16.44 2°52.832 19.8507 0.06279 0.351664 -0.304087
2009-06-08 08:26:25 51°16.452 2°52.826 19.8505 0.06279 0.351671 -0.304087
2009-06-08 08:26:30 51°16.466 2°52.818 19.8502 0.06279 0.351677 -0.338911
2009-06-08 08:26:36 51°16.484 2°52.807 19.8575 0.06279 0.351677 -0.304087
2009-06-08 08:26:41 51°16.498 2°52.799 19.8522 0.06279 0.351683 -0.304087
2009-06-08 08:26:45 51°16.51 2°52.793 19.8546 0.06279 0.351683 -0.304087
2009-06-08 08:26:50 51°16.525 2°52.785 19.8583 0.06279 0.351683 -0.304087
2009-06-08 08:26:55 51°16.54 2°52.777 19.8444 0.06279 0.35169 -0.338911
2009-06-08 08:27:01 51°16.557 2°52.768 19.8394 0.06279 0.351696 -0.338911
2009-06-08 08:27:05 51°16.569 2°52.761 19.8444 0.06279 0.351703 -0.304087
2009-06-08 08:27:10 51°16.584 2°52.753 19.8529 0.06279 0.351709 -0.338911
2009-06-08 08:27:16 51°16.601 2°52.744 19.855 0.06279 0.351709 -0.338911
2009-06-08 08:27:21 51°16.616 2°52.736 19.8551 0.06279 0.351709 -0.304087
2009-06-08 08:27:26 51°16.63 2°52.728 19.8501 0.06279 0.351722 -0.304087
2009-06-08 08:27:30 51°16.642 2°52.721 19.8664 0.06279 0.351722 -0.338911
2009-06-08 08:27:36 51°16.659 2°52.711 19.863 0.06279 0.351728 -0.304087
2009-06-08 08:27:41 51°16.674 2°52.703 19.8651 0.06279 0.351728 -0.304087
2009-06-08 08:27:45 51°16.686 2°52.697 19.8628 0.06279 0.351728 -0.304087
2009-06-08 08:27:50 51°16.7 2°52.688 19.8632 0.06279 0.351735 -0.304087
2009-06-08 08:27:55 51°16.715 2°52.68 19.8647 0.06279 0.351741 -0.304087
2009-06-08 08:28:01 51°16.732 2°52.67 19.8499 0.06279 0.351748 -0.304087
2009-06-08 08:28:06 51°16.746 2°52.662 19.8687 0.06279 0.351748 -0.338911
2009-06-08 08:28:10 51°16.758 2°52.656 19.8707 0.06279 0.351754 -0.304087
2009-06-08 08:28:16 51°16.775 2°52.646 19.8674 0.06279 0.351754 -0.304087
2009-06-08 08:28:21 51°16.789 2°52.638 19.8607 0.06279 0.351761 -0.338911
2009-06-08 08:28:25 51°16.801 2°52.632 19.856 0.06279 0.351767 -0.304087
2009-06-08 08:28:30 51°16.815 2°52.623 19.8535 0.06279 0.351773 -0.338911
2009-06-08 08:28:36 51°16.832 2°52.613 19.8626 0.06279 0.351773 -0.304087
2009-06-08 08:28:41 51°16.846 2°52.605 19.8493 0.06279 0.351786 -0.338911
2009-06-08 08:28:46 51°16.861 2°52.598 19.8502 0.06279 0.351786 -0.338911
2009-06-08 08:28:51 51°16.875 2°52.591 19.8704 0.06279 0.35178 -0.338911
2009-06-08 08:28:56 51°16.89 2°52.584 19.847 0.06279 0.351799 -0.338911
2009-06-08 08:29:01 51°16.904 2°52.578 19.8685 0.06279 0.351793 -0.338911
2009-06-08 08:29:06 51°16.919 2°52.573 19.8606 0.06279 0.351806 -0.338911
2009-06-08 08:29:10 51°16.93 2°52.568 19.8705 0.06279 0.351806 -0.304087
2009-06-08 08:29:16 51°16.948 2°52.562 19.8701 0.06279 0.351806 -0.304087
2009-06-08 08:29:21 51°16.962 2°52.557 19.8586 0.06279 0.351812 -0.338911
2009-06-08 08:29:26 51°16.977 2°52.552 19.8777 0.06279 0.351818 -0.304087
2009-06-08 08:29:30 51°16.989 2°52.549 19.8637 0.06279 0.351825 -0.304087
2009-06-08 08:29:35 51°17.003 2°52.544 19.8653 0.06279 0.351825 -0.304087
2009-06-08 08:29:41 51°17.021 2°52.54 19.8656 0.06279 0.351838 -0.304087
2009-06-08 08:29:45 51°17.033 2°52.536 19.8829 0.06279 0.351838 -0.304087
2009-06-08 08:29:50 51°17.047 2°52.531 19.8573 0.06279 0.351838 -0.304087
2009-06-08 08:29:56 51°17.065 2°52.526 19.8795 0.06279 0.351844 -0.304087
2009-06-08 08:30:01 51°17.079 2°52.522 19.8633 0.06279 0.351844 -0.304087
2009-06-08 08:30:06 51°17.094 2°52.519 19.8703 0.06279 0.351851 -0.304087
2009-06-08 08:30:10 51°17.105 2°52.516 19.8723 0.06279 0.351851 -0.304087
2009-06-08 08:30:15 51°17.12 2°52.513 19.8886 0.06279 0.351851 -0.304087
2009-06-08 08:30:21 51°17.138 2°52.511 19.873 0.06279 0.351864 -0.304087
2009-06-08 08:30:26 51°17.152 2°52.509 19.8691 0.06279 0.351864 -0.304087
2009-06-08 08:30:30 51°17.164 2°52.508 19.8742 0.06279 0.35187 -0.304087
2009-06-08 08:30:36 51°17.182 2°52.506 19.8907 0.06279 0.351876 -0.304087
2009-06-08 08:30:41 51°17.196 2°52.504 19.8893 0.06279 0.351883 -0.304087
2009-06-08 08:30:46 51°17.211 2°52.503 19.8869 0.06279 0.351883 -0.304087
2009-06-08 08:30:50 51°17.223 2°52.502 19.8873 0.06279 0.351883 -0.304087
2009-06-08 08:30:56 51°17.24 2°52.501 19.8812 0.06279 0.351889 -0.304087
2009-06-08 08:31:01 51°17.255 2°52.5 19.8873 0.06279 0.351896 -0.338911